| time (UTC) | temp F | wind direction | speed MPH | gust MPH | rain 1hr in | rain 24hr in | rain mn in | humidity % | barometer mb |
| 20260901222507 | 82 | 200 | 0.0 | 0.0 | 0.00 | 0.00 | 0.00 | 72 | 1013.2 |
| 20260901222457 | 82 | 200 | 0.0 | 0.0 | 0.00 | 0.00 | 0.00 | 73 | 1013.2 |
| 20260901222436 | 82 | 200 | 0.0 | 0.0 | 0.00 | 0.00 | 0.00 | 73 | 1013.2 |
| 20260901222107 | 82 | 200 | 0.0 | 0.0 | 0.00 | 0.00 | 0.00 | 74 | 1013.3 |
| 20260901222006 | 82 | 200 | 0.0 | 0.0 | 0.00 | 0.00 | 0.00 | 74 | 1013.2 |
| 20260901221715 | 82 | 200 | 0.0 | 0.0 | 0.00 | 0.00 | 0.00 | 75 | 1013.2 |
| 20260901221606 | 82 | 202 | 0.0 | 0.0 | 0.00 | 0.00 | 0.00 | 76 | 1013.2 |
| 20260901221452 | 82 | 200 | 0.0 | 0.0 | 0.00 | 0.00 | 0.00 | 74 | 1013.2 |
| 20260901221432 | 82 | 200 | 0.0 | 0.0 | 0.00 | 0.00 | 0.00 | 74 | 1013.2 |
| 20260901221107 | 82 | 200 | 0.0 | 0.0 | 0.00 | 0.00 | 0.00 | 74 | 1013.3 |
| 20260901220903 | 82 | 200 | 0.0 | 0.0 | 0.00 | 0.00 | 0.00 | 75 | 1013.1 |
| 20260901220717 | 82 | 200 | 0.0 | 0.0 | 0.00 | 0.00 | 0.00 | 74 | 1013.2 |
| 20260901220608 | 82 | 202 | 0.0 | 0.0 | 0.00 | 0.00 | 0.00 | 75 | 1013.1 |
| 20260901220507 | 82 | 200 | 0.0 | 0.0 | 0.00 | 0.00 | 0.00 | 72 | 1013.2 |
| 20260901220458 | 82 | 200 | 0.0 | 0.0 | 0.00 | 0.00 | 0.00 | 72 | 1013.2 |
| 20260901220434 | 82 | 200 | 0.0 | 0.0 | 0.00 | 0.00 | 0.00 | 72 | 1013.2 |
| 20260901215903 | 83 | 200 | 0.0 | 0.0 | 0.00 | 0.00 | 0.00 | 72 | 1013.1 |
| 20260901215704 | 83 | 202 | 0.0 | 0.0 | 0.00 | 0.00 | 0.00 | 71 | 1013.1 |
| 20260901215525 | 83 | 200 | 0.0 | 0.0 | 0.00 | 0.00 | 0.00 | 73 | 1013.1 |
| 20260901215520 | 83 | 202 | 0.0 | 0.0 | 0.00 | 0.00 | 0.00 | 72 | 1013.1 |
| 20260901215514 | 83 | 202 | 0.0 | 0.0 | 0.00 | 0.00 | 0.00 | 72 | 1013.1 |
| 20260901215446 | 83 | 200 | 0.0 | 0.0 | 0.00 | 0.00 | 0.00 | 73 | 1013.1 |
| 20260901214907 | 83 | 200 | 0.0 | 0.0 | 0.00 | 0.00 | 0.00 | 72 | 1013.2 |
| 20260901214811 | 83 | 200 | 0.0 | 0.0 | 0.00 | 0.00 | 0.00 | 71 | 1013.1 |
| 20260901214709 | 83 | 200 | 0.0 | 0.0 | 0.00 | 0.00 | 0.00 | 71 | 1013.1 |
| 20260901214507 | 83 | 200 | 0.0 | 0.0 | 0.00 | 0.00 | 0.00 | 69 | 1013.1 |
| 20260901214307 | 83 | 200 | 0.0 | 0.0 | 0.00 | 0.00 | 0.00 | 70 | 1013.1 |
| 20260901214219 | 83 | 199 | 0.0 | 0.0 | 0.00 | 0.00 | 0.00 | 70 | 1013.1 |
| 20260901214106 | 83 | 200 | 0.0 | 0.0 | 0.00 | 0.00 | 0.00 | 69 | 1013.1 |
| 20260901214022 | 84 | 200 | 0.0 | 2.0 | 0.00 | 0.00 | 0.00 | 71 | 1013.1 |
| 20260901213957 | 83 | 200 | 0.0 | 1.0 | 0.00 | 0.00 | 0.00 | 69 | 1013.1 |
| 20260901213933 | 84 | 200 | 0.0 | 2.0 | 0.00 | 0.00 | 0.00 | 71 | 1013.1 |
| 20260901213506 | 84 | 200 | 0.0 | 4.0 | 0.00 | 0.00 | 0.00 | 70 | 1013.2 |
| 20260901213307 | 84 | 200 | 0.0 | 4.0 | 0.00 | 0.00 | 0.00 | 66 | 1013.1 |
| 20260901213208 | 84 | 200 | 0.0 | 4.0 | 0.00 | 0.00 | 0.00 | 66 | 1013.0 |
| 20260901213107 | 84 | 200 | 0.0 | 4.0 | 0.00 | 0.00 | 0.00 | 66 | 1013.1 |
| 20260901213046 | 84 | 202 | 0.0 | 4.0 | 0.00 | 0.00 | 0.00 | 68 | 1013.1 |
| 20260901212955 | 84 | 200 | 0.0 | 4.0 | 0.00 | 0.00 | 0.00 | 64 | 1013.1 |
| 20260901212507 | 84 | 206 | 0.0 | 2.0 | 0.00 | 0.00 | 0.00 | 66 | 1013.1 |
| 20260901212307 | 85 | 204 | 0.0 | 2.0 | 0.00 | 0.00 | 0.00 | 67 | 1013.1 |
| 20260901212209 | 84 | 203 | 0.0 | 2.0 | 0.00 | 0.00 | 0.00 | 67 | 1013.1 |
| 20260901212106 | 84 | 206 | 0.0 | 2.0 | 0.00 | 0.00 | 0.00 | 65 | 1013.0 |
| 20260901211958 | 84 | 204 | 0.0 | 2.0 | 0.00 | 0.00 | 0.00 | 69 | 1013.1 |
| 20260901211947 | 84 | 204 | 0.0 | 2.0 | 0.00 | 0.00 | 0.00 | 65 | 1013.2 |
| 20260901211920 | 84 | 204 | 0.0 | 2.0 | 0.00 | 0.00 | 0.00 | 69 | 1013.1 |
| 20260901211516 | 84 | 206 | 0.0 | 3.0 | 0.00 | 0.00 | 0.00 | 72 | 1013.1 |
| 20260901211507 | 84 | 204 | 0.0 | 3.0 | 0.00 | 0.00 | 0.00 | 69 | 1013.1 |
| 20260901211206 | 83 | 206 | 0.0 | 3.0 | 0.00 | 0.00 | 0.00 | 70 | 1013.1 |
| 20260901211106 | 83 | 203 | 0.0 | 3.0 | 0.00 | 0.00 | 0.00 | 70 | 1013.1 |
| 20260901210906 | 83 | 204 | 0.0 | 3.0 | 0.00 | 0.00 | 0.00 | 68 | 1013.2 |
| 20260901210720 | 83 | 204 | 0.0 | 3.0 | 0.00 | 0.00 | 0.00 | 65 | 1013.2 |
| 20260901210506 | 83 | 203 | 0.0 | 3.0 | 0.00 | 0.00 | 0.00 | 66 | 1013.2 |
| 20260901210306 | 83 | 204 | 0.0 | 3.0 | 0.00 | 0.00 | 0.00 | 66 | 1013.2 |
| 20260901210207 | 83 | 206 | 0.0 | 3.0 | 0.00 | 0.00 | 0.00 | 66 | 1013.2 |
| 20260901210106 | 83 | 206 | 0.0 | 3.0 | 0.00 | 0.00 | 0.00 | 67 | 1013.2 |
| 20260901205906 | 83 | 204 | 0.0 | 3.0 | 0.00 | 0.00 | 0.00 | 66 | 1013.3 |
| 20260901205707 | 83 | 204 | 0.0 | 3.0 | 0.00 | 0.00 | 0.00 | 66 | 1013.2 |
| 20260901205533 | 82 | 204 | 0.0 | 3.0 | 0.00 | 0.00 | 0.00 | 66 | 1013.2 |
| 20260901205506 | 83 | 204 | 0.0 | 3.0 | 0.00 | 0.00 | 0.00 | 65 | 1013.2 |
| 20260901205452 | 82 | 203 | 0.0 | 2.0 | 0.00 | 0.00 | 0.00 | 66 | 1013.1 |
| 20260901205106 | 82 | 206 | 0.0 | 1.0 | 0.00 | 0.00 | 0.00 | 69 | 1013.1 |
| 20260901205008 | 82 | 203 | 0.0 | 0.0 | 0.00 | 0.00 | 0.00 | 69 | 1013.2 |
| 20260901204708 | 82 | 203 | 0.0 | 0.0 | 0.00 | 0.00 | 0.00 | 69 | 1013.1 |
| 20260901204512 | 82 | 203 | 0.0 | 0.0 | 0.00 | 0.00 | 0.00 | 69 | 1013.2 |
| 20260901204443 | 83 | 204 | 0.0 | 0.0 | 0.00 | 0.00 | 0.00 | 69 | 1013.1 |
| 20260901204431 | 82 | 203 | 0.0 | 0.0 | 0.00 | 0.00 | 0.00 | 69 | 1013.0 |
| 20260901204106 | 83 | 204 | 0.0 | 0.0 | 0.00 | 0.00 | 0.00 | 69 | 1013.0 |
| 20260901204008 | 83 | 204 | 0.0 | 0.0 | 0.00 | 0.00 | 0.00 | 69 | 1013.1 |
| 20260901203707 | 83 | 204 | 0.0 | 0.0 | 0.00 | 0.00 | 0.00 | 70 | 1013.1 |
| 20260901203605 | 83 | 203 | 0.0 | 0.0 | 0.00 | 0.00 | 0.00 | 70 | 1013.1 |
| 20260901203458 | 83 | 204 | 0.0 | 2.0 | 0.00 | 0.00 | 0.00 | 70 | 1013.2 |
| 20260901203434 | 83 | 204 | 0.0 | 0.0 | 0.00 | 0.00 | 0.00 | 70 | 1013.2 |
| 20260901203106 | 83 | 204 | 0.0 | 2.0 | 0.00 | 0.00 | 0.00 | 69 | 1013.2 |
| 20260901202906 | 83 | 204 | 0.0 | 2.0 | 0.00 | 0.00 | 0.00 | 67 | 1013.4 |
| 20260901202708 | 83 | 204 | 0.0 | 3.0 | 0.00 | 0.00 | 0.00 | 68 | 1013.4 |
| 20260901202608 | 83 | 204 | 0.0 | 3.0 | 0.00 | 0.00 | 0.00 | 65 | 1013.7 |
| 20260901202513 | 83 | 204 | 0.0 | 3.0 | 0.00 | 0.00 | 0.00 | 65 | 1013.6 |
| 20260901202507 | 83 | 204 | 0.0 | 3.0 | 0.00 | 0.00 | 0.00 | 64 | 1013.4 |
| 20260901202435 | 83 | 204 | 0.0 | 3.0 | 0.00 | 0.00 | 0.00 | 64 | 1013.6 |
| 20260901201906 | 83 | 204 | 0.0 | 3.0 | 0.00 | 0.00 | 0.00 | 64 | 1013.8 |
| 20260901201708 | 83 | 204 | 0.0 | 3.0 | 0.00 | 0.00 | 0.00 | 65 | 1013.8 |
| 20260901201505 | 82 | 204 | 0.0 | 3.0 | 0.00 | 0.00 | 0.00 | 64 | 1013.8 |
| 20260901201306 | 82 | 206 | 0.0 | 3.0 | 0.00 | 0.00 | 0.00 | 66 | 1013.8 |
| 20260901201217 | 82 | 204 | 0.0 | 3.0 | 0.00 | 0.00 | 0.00 | 66 | 1013.7 |
| 20260901201206 | 82 | 206 | 0.0 | 3.0 | 0.00 | 0.00 | 0.00 | 66 | 1013.7 |
| 20260901200906 | 82 | 206 | 0.0 | 3.0 | 0.00 | 0.00 | 0.00 | 68 | 1013.7 |
| 20260901200707 | 83 | 206 | 0.0 | 0.0 | 0.00 | 0.00 | 0.00 | 71 | 1013.7 |
| 20260901200508 | 83 | 204 | 0.0 | 0.0 | 0.00 | 0.00 | 0.00 | 70 | 1013.6 |
| 20260901200405 | 82 | 203 | 0.0 | 0.0 | 0.00 | 0.00 | 0.00 | 70 | 1013.5 |
| 20260901200206 | 82 | 204 | 0.0 | 0.0 | 0.00 | 0.00 | 0.00 | 68 | 1013.5 |
| 20260901200107 | 82 | 206 | 0.0 | 0.0 | 0.00 | 0.00 | 0.00 | 68 | 1013.5 |
| 20260901195911 | 82 | 204 | 0.0 | 0.0 | 0.00 | 0.00 | 0.00 | 68 | 1013.5 |
| 20260901195808 | 82 | 204 | 0.0 | 0.0 | 0.00 | 0.00 | 0.00 | 68 | 1013.5 |
| 20260901195707 | 82 | 204 | 0.0 | 0.0 | 0.00 | 0.00 | 0.00 | 68 | 1013.5 |
| 20260901195506 | 82 | 203 | 0.0 | 0.0 | 0.00 | 0.00 | 0.00 | 70 | 1013.4 |
| 20260901195306 | 82 | 204 | 0.0 | 0.0 | 0.00 | 0.00 | 0.00 | 70 | 1013.4 |
| 20260901195206 | 83 | 203 | 0.0 | 1.0 | 0.00 | 0.00 | 0.00 | 70 | 1013.4 |
| 20260901195107 | 83 | 203 | 0.0 | 3.0 | 0.00 | 0.00 | 0.00 | 70 | 1013.4 |
| 20260901195005 | 83 | 206 | 0.0 | 3.0 | 0.00 | 0.00 | 0.00 | 69 | 1013.5 |
| 20260901194708 | 83 | 204 | 0.0 | 3.0 | 0.00 | 0.00 | 0.00 | 68 | 1013.5 |
| 20260901194506 | 83 | 204 | 0.0 | 3.0 | 0.00 | 0.00 | 0.00 | 68 | 1013.5 |
| 20260901194409 | 83 | 204 | 0.0 | 3.0 | 0.00 | 0.00 | 0.00 | 64 | 1013.5 |
| 20260901194206 | 83 | 204 | 0.0 | 3.0 | 0.00 | 0.00 | 0.00 | 63 | 1013.7 |
| 20260901194107 | 83 | 207 | 0.0 | 3.0 | 0.00 | 0.00 | 0.00 | 65 | 1013.7 |
| 20260901193908 | 83 | 206 | 0.0 | 2.0 | 0.00 | 0.00 | 0.00 | 66 | 1013.7 |
| 20260901193709 | 83 | 204 | 0.0 | 2.0 | 0.00 | 0.00 | 0.00 | 63 | 1013.9 |
| 20260901193606 | 83 | 204 | 0.0 | 2.0 | 0.00 | 0.00 | 0.00 | 63 | 1013.9 |
| 20260901193452 | 83 | 206 | 0.0 | 2.0 | 0.00 | 0.00 | 0.00 | 64 | 1013.8 |
| 20260901193430 | 83 | 204 | 0.0 | 2.0 | 0.00 | 0.00 | 0.00 | 64 | 1013.8 |
| 20260901193107 | 83 | 204 | 0.0 | 2.0 | 0.00 | 0.00 | 0.00 | 63 | 1013.8 |
| 20260901192907 | 83 | 206 | 0.0 | 2.0 | 0.00 | 0.00 | 0.00 | 65 | 1013.8 |
| 20260901192708 | 83 | 204 | 0.0 | 2.0 | 0.00 | 0.00 | 0.00 | 65 | 1013.8 |
| 20260901192607 | 83 | 206 | 0.0 | 3.0 | 0.00 | 0.00 | 0.00 | 64 | 1013.7 |
| 20260901192307 | 83 | 204 | 0.0 | 3.0 | 0.00 | 0.00 | 0.00 | 64 | 1013.6 |
| 20260901192217 | 83 | 206 | 0.0 | 3.0 | 0.00 | 0.00 | 0.00 | 63 | 1013.7 |
| 20260901192206 | 83 | 204 | 0.0 | 3.0 | 0.00 | 0.00 | 0.00 | 63 | 1013.7 |
| 20260901191906 | 83 | 206 | 0.0 | 3.0 | 0.00 | 0.00 | 0.00 | 63 | 1013.8 |
| 20260901191707 | 83 | 206 | 0.0 | 3.0 | 0.00 | 0.00 | 0.00 | 62 | 1014.0 |
| 20260901191507 | 83 | 203 | 0.0 | 4.0 | 0.00 | 0.00 | 0.00 | 63 | 1014.0 |
| 20260901191306 | 83 | 202 | 0.0 | 4.0 | 0.00 | 0.00 | 0.00 | 63 | 1014.0 |
| 20260901191217 | 83 | 202 | 0.0 | 4.0 | 0.00 | 0.00 | 0.00 | 62 | 1014.0 |
| 20260901191206 | 83 | 203 | 0.0 | 4.0 | 0.00 | 0.00 | 0.00 | 62 | 1014.0 |
| 20260901190906 | 83 | 203 | 0.0 | 4.0 | 0.00 | 0.00 | 0.00 | 61 | 1014.0 |
| 20260901190812 | 83 | 202 | 0.0 | 4.0 | 0.00 | 0.00 | 0.00 | 61 | 1014.0 |
| 20260901190707 | 83 | 202 | 0.0 | 4.0 | 0.00 | 0.00 | 0.00 | 61 | 1014.0 |
| 20260901190506 | 83 | 223 | 0.0 | 4.0 | 0.00 | 0.00 | 0.00 | 60 | 1013.9 |
| 20260901190306 | 83 | 223 | 0.0 | 4.0 | 0.00 | 0.00 | 0.00 | 59 | 1013.9 |
| 20260901190206 | 83 | 224 | 0.0 | 4.0 | 0.00 | 0.00 | 0.00 | 60 | 1013.9 |
| 20260901190106 | 83 | 227 | 0.0 | 4.0 | 0.00 | 0.00 | 0.00 | 59 | 1013.9 |
| 20260901185906 | 83 | 230 | 0.0 | 3.0 | 0.00 | 0.00 | 0.00 | 61 | 1014.1 |
| 20260901185816 | 84 | 228 | 0.0 | 3.0 | 0.00 | 0.00 | 0.00 | 60 | 1014.0 |
| 20260901185708 | 84 | 228 | 0.0 | 3.0 | 0.00 | 0.00 | 0.00 | 60 | 1014.0 |
| 20260901185605 | 84 | 241 | 0.0 | 3.0 | 0.00 | 0.00 | 0.00 | 59 | 1014.0 |
| 20260901185458 | 84 | 241 | 0.0 | 2.0 | 0.00 | 0.00 | 0.00 | 59 | 1013.8 |
| 20260901185438 | 84 | 240 | 0.0 | 2.0 | 0.00 | 0.00 | 0.00 | 58 | 1013.9 |
| 20260901185106 | 84 | 240 | 0.0 | 2.0 | 0.00 | 0.00 | 0.00 | 59 | 1013.8 |
| 20260901184907 | 85 | 243 | 0.0 | 2.0 | 0.00 | 0.00 | 0.00 | 62 | 1013.9 |
| 20260901184707 | 85 | 241 | 0.0 | 2.0 | 0.00 | 0.00 | 0.00 | 60 | 1014.0 |
| 20260901184606 | 85 | 241 | 0.0 | 2.0 | 0.00 | 0.00 | 0.00 | 57 | 1013.9 |
| 20260901184305 | 85 | 241 | 0.0 | 2.0 | 0.00 | 0.00 | 0.00 | 58 | 1013.9 |
| 20260901184216 | 85 | 243 | 0.0 | 2.0 | 0.00 | 0.00 | 0.00 | 59 | 1013.9 |
| 20260901184206 | 85 | 243 | 0.0 | 2.0 | 0.00 | 0.00 | 0.00 | 60 | 1013.9 |
| 20260901183906 | 86 | 241 | 0.0 | 1.0 | 0.00 | 0.00 | 0.00 | 57 | 1013.9 |
| 20260901183708 | 86 | 241 | 0.0 | 1.0 | 0.00 | 0.00 | 0.00 | 57 | 1013.7 |
| 20260901183507 | 86 | 243 | 0.0 | 1.0 | 0.00 | 0.00 | 0.00 | 59 | 1013.6 |
| 20260901183305 | 86 | 243 | 0.0 | 1.0 | 0.00 | 0.00 | 0.00 | 58 | 1013.4 |
| 20260901183220 | 86 | 241 | 0.0 | 1.0 | 0.00 | 0.00 | 0.00 | 58 | 1013.5 |
| 20260901183206 | 86 | 243 | 0.0 | 1.0 | 0.00 | 0.00 | 0.00 | 60 | 1013.5 |
| 20260901182906 | 86 | 240 | 0.0 | 2.0 | 0.00 | 0.00 | 0.00 | 54 | 1013.7 |
| 20260901182811 | 86 | 241 | 0.0 | 2.0 | 0.00 | 0.00 | 0.00 | 53 | 1013.7 |
| 20260901182707 | 86 | 241 | 0.0 | 2.0 | 0.00 | 0.00 | 0.00 | 53 | 1013.7 |
| 20260901182507 | 87 | 243 | 0.0 | 2.0 | 0.00 | 0.00 | 0.00 | 58 | 1013.7 |
| 20260901182307 | 86 | 243 | 0.0 | 3.0 | 0.00 | 0.00 | 0.00 | 58 | 1013.8 |
| 20260901182211 | 86 | 243 | 0.0 | 3.0 | 0.00 | 0.00 | 0.00 | 58 | 1013.8 |
| 20260901182054 | 86 | 243 | 0.0 | 3.0 | 0.00 | 0.00 | 0.00 | 58 | 1013.7 |
| 20260901181853 | 85 | 243 | 0.0 | 4.0 | 0.00 | 0.00 | 0.00 | 61 | 1013.8 |
| 20260901181658 | 85 | 241 | 0.0 | 4.0 | 0.00 | 0.00 | 0.00 | 56 | 1013.9 |
| 20260901181454 | 85 | 241 | 0.0 | 4.0 | 0.00 | 0.00 | 0.00 | 57 | 1014.0 |
| 20260901181252 | 85 | 243 | 0.0 | 4.0 | 0.00 | 0.00 | 0.00 | 57 | 1014.0 |
| 20260901181154 | 85 | 243 | 0.0 | 4.0 | 0.00 | 0.00 | 0.00 | 56 | 1014.0 |
| 20260901181052 | 85 | 241 | 0.0 | 3.0 | 0.00 | 0.00 | 0.00 | 60 | 1014.1 |
| 20260901180849 | 85 | 241 | 0.0 | 3.0 | 0.00 | 0.00 | 0.00 | 60 | 1014.1 |
| 20260901180800 | 85 | 238 | 0.0 | 0.0 | 0.00 | 0.00 | 0.00 | 62 | 1014.2 |
| 20260901180655 | 85 | 238 | 0.0 | 0.0 | 0.00 | 0.00 | 0.00 | 62 | 1014.2 |
| 20260901180619 | 0 | 0.0 | 0.0 | 0.00 | 0.00 | 0.00 | |||
| 20260901180259 | 0 | 0.0 | 0.0 | 0.00 | 0.00 | 0.00 | |||
| 20260901180004 | 0 | 0.0 | 0.0 | 0.00 | 0.00 | 0.00 | |||
| 20260901175902 | 0 | 0.0 | 0.0 | 0.00 | 0.00 | 0.00 | |||
| 20260901175804 | 0 | 0.0 | 0.0 | 0.00 | 0.00 | 0.00 | |||
| 20260901175607 | 0 | 0.0 | 0.0 | 0.00 | 0.00 | 0.00 | |||
| 20260901175544 | 0 | 0.0 | 0.0 | 0.00 | 0.00 | 0.00 | 1014.4 | ||
| 20260901175232 | 0 | 0.0 | 0.0 | 0.00 | 0.00 | 0.00 | 1014.4 | ||
| 20260901174931 | 0 | 0.0 | 0.0 | 0.00 | 0.00 | 0.00 | 1014.4 | ||
| 20260901174839 | 84 | 278 | 0.0 | 3.0 | 0.00 | 0.00 | 0.00 | 60 | 1014.4 |
| 20260901174830 | 84 | 278 | 0.0 | 1.0 | 0.00 | 0.00 | 0.00 | 60 | 1014.4 |
| 20260901174611 | 84 | 278 | 0.0 | 3.0 | 0.00 | 0.00 | 0.00 | 60 | 1014.4 |
| 20260901174554 | 84 | 278 | 0.0 | 3.0 | 0.00 | 0.00 | 0.00 | 60 | 1014.4 |
| 20260901174303 | 84 | 278 | 0.0 | 3.0 | 0.00 | 0.00 | 0.00 | 60 | 1014.4 |
| 20260901174103 | 84 | 278 | 0.0 | 3.0 | 0.00 | 0.00 | 0.00 | 60 | 1014.5 |
| 20260901173831 | 84 | 278 | 0.0 | 3.0 | 0.00 | 0.00 | 0.00 | 60 | 1014.5 |
| 20260901173803 | 84 | 278 | 0.0 | 2.0 | 0.00 | 0.00 | 0.00 | 59 | 1014.5 |
| 20260901173632 | 84 | 278 | 0.0 | 1.0 | 0.00 | 0.00 | 0.00 | 59 | 1014.5 |
| 20260901173431 | 83 | 278 | 0.0 | 1.0 | 0.00 | 0.00 | 0.00 | 58 | 1014.4 |
| 20260901173303 | 83 | 279 | 0.0 | 1.0 | 0.00 | 0.00 | 0.00 | 58 | 1014.6 |
| 20260901173231 | 83 | 281 | 0.0 | 1.0 | 0.00 | 0.00 | 0.00 | 58 | 1014.6 |
| 20260901173030 | 83 | 279 | 0.0 | 1.0 | 0.00 | 0.00 | 0.00 | 61 | 1014.5 |
| 20260901172932 | 83 | 279 | 0.0 | 1.0 | 0.00 | 0.00 | 0.00 | 55 | 1014.6 |
| 20260901172802 | 83 | 279 | 0.0 | 1.0 | 0.00 | 0.00 | 0.00 | 55 | 1014.5 |
| 20260901172630 | 83 | 279 | 0.0 | 3.0 | 0.00 | 0.00 | 0.00 | 57 | 1014.6 |
| 20260901172530 | 83 | 278 | 0.0 | 3.0 | 0.00 | 0.00 | 0.00 | 64 | 1014.6 |
| 20260901172306 | 83 | 278 | 0.0 | 3.0 | 0.00 | 0.00 | 0.00 | 64 | 1014.6 |
| 20260901172230 | 83 | 278 | 0.0 | 3.0 | 0.00 | 0.00 | 0.00 | 64 | 1014.6 |
| 20260901172110 | 84 | 278 | 0.0 | 3.0 | 0.00 | 0.00 | 0.00 | 58 | 1014.7 |
| 20260901172058 | 83 | 278 | 0.0 | 3.0 | 0.00 | 0.00 | 0.00 | 60 | 1014.6 |
| 20260901172020 | 83 | 279 | 0.0 | 3.0 | 0.00 | 0.00 | 0.00 | 58 | 1014.6 |
| 20260901171629 | 84 | 223 | 0.0 | 4.0 | 0.00 | 0.00 | 0.00 | 57 | 1014.7 |
| 20260901171526 | 84 | 221 | 0.0 | 4.0 | 0.00 | 0.00 | 0.00 | 60 | 1014.7 |
| 20260901171301 | 83 | 221 | 0.0 | 4.0 | 0.00 | 0.00 | 0.00 | 60 | 1014.7 |
| 20260901171229 | 83 | 221 | 0.0 | 4.0 | 0.00 | 0.00 | 0.00 | 62 | 1014.7 |
| 20260901171157 | 83 | 221 | 0.0 | 4.0 | 0.00 | 0.00 | 0.00 | 60 | 1014.7 |
| 20260901171106 | 83 | 221 | 0.0 | 4.0 | 0.00 | 0.00 | 0.00 | 59 | 1014.6 |
| 20260901171020 | 83 | 220 | 0.0 | 4.0 | 0.00 | 0.00 | 0.00 | 56 | 1014.6 |
| 20260901170627 | 83 | 223 | 0.0 | 4.0 | 0.00 | 0.00 | 0.00 | 56 | 1014.7 |
| 20260901170426 | 83 | 221 | 0.0 | 4.0 | 0.00 | 0.00 | 0.00 | 54 | 1014.7 |
| 20260901170302 | 84 | 240 | 0.0 | 3.0 | 0.00 | 0.00 | 0.00 | 55 | 1014.7 |
| 20260901170229 | 84 | 240 | 0.0 | 3.0 | 0.00 | 0.00 | 0.00 | 55 | 1014.7 |
| 20260901170133 | 84 | 240 | 0.0 | 3.0 | 0.00 | 0.00 | 0.00 | 55 | 1014.6 |
| 20260901170021 | 84 | 240 | 0.0 | 3.0 | 0.00 | 0.00 | 0.00 | 61 | 1014.6 |
| 20260901165952 | 84 | 240 | 0.0 | 3.0 | 0.00 | 0.00 | 0.00 | 62 | 1014.6 |
| 20260901165715 | 83 | 240 | 0.0 | 3.0 | 0.00 | 0.00 | 0.00 | 59 | 1014.6 |
| 20260901165416 | 84 | 238 | 0.0 | 3.0 | 0.00 | 0.00 | 0.00 | 59 | 1014.6 |
| 20260901165314 | 84 | 240 | 0.0 | 3.0 | 0.00 | 0.00 | 0.00 | 64 | 1014.6 |
| 20260901165230 | 84 | 240 | 0.0 | 3.0 | 0.00 | 0.00 | 0.00 | 64 | 1014.6 |
| 20260901165016 | 83 | 240 | 0.0 | 4.0 | 0.00 | 0.00 | 0.00 | 60 | 1014.7 |
| 20260901164905 | 84 | 238 | 0.0 | 4.0 | 0.00 | 0.00 | 0.00 | 63 | 1014.6 |
| 20260901164731 | 83 | 240 | 0.0 | 4.0 | 0.00 | 0.00 | 0.00 | 66 | 1014.6 |
| 20260901164605 | 83 | 240 | 0.0 | 4.0 | 0.00 | 0.00 | 0.00 | 62 | 1014.6 |
| 20260901164404 | 83 | 238 | 0.0 | 4.0 | 0.00 | 0.00 | 0.00 | 64 | 1014.8 |
| 20260901164229 | 82 | 238 | 0.0 | 4.0 | 0.00 | 0.00 | 0.00 | 65 | 1014.8 |
| 20260901164205 | 82 | 240 | 0.0 | 4.0 | 0.00 | 0.00 | 0.00 | 65 | 1014.8 |
| 20260901164005 | 83 | 241 | 0.0 | 3.0 | 0.00 | 0.00 | 0.00 | 63 | 1014.8 |
| 20260901163849 | 83 | 241 | 0.0 | 5.0 | 0.00 | 0.00 | 0.00 | 64 | 1014.8 |
| 20260901163728 | 83 | 240 | 0.0 | 5.0 | 0.00 | 0.00 | 0.00 | 62 | 1014.8 |
| 20260901163548 | 83 | 237 | 0.0 | 5.0 | 0.00 | 0.00 | 0.00 | 65 | 1014.8 |
| 20260901163446 | 82 | 240 | 0.0 | 5.0 | 0.00 | 0.00 | 0.00 | 65 | 1014.7 |
| 20260901163229 | 82 | 240 | 0.0 | 5.0 | 0.00 | 0.00 | 0.00 | 67 | 1014.7 |
| 20260901163147 | 82 | 240 | 0.0 | 5.0 | 0.00 | 0.00 | 0.00 | 66 | 1014.8 |
| 20260901162946 | 81 | 240 | 0.0 | 5.0 | 0.00 | 0.00 | 0.00 | 64 | 1014.8 |
| 20260901162747 | 82 | 230 | 0.0 | 5.0 | 0.00 | 0.00 | 0.00 | 65 | 1014.8 |
| 20260901162728 | 82 | 234 | 0.0 | 5.0 | 0.00 | 0.00 | 0.00 | 64 | 1014.8 |
| 20260901162546 | 81 | 237 | 0.0 | 5.0 | 0.00 | 0.00 | 0.00 | 66 | 1015.0 |
| 20260901162444 | 81 | 237 | 0.0 | 5.0 | 0.00 | 0.00 | 0.00 | 67 | 1014.7 |
| 20260901162229 | 81 | 237 | 0.0 | 5.0 | 0.00 | 0.00 | 0.00 | 67 | 1014.8 |
| 20260901162142 | 81 | 237 | 0.0 | 5.0 | 0.00 | 0.00 | 0.00 | 69 | 1014.7 |
| 20260901162039 | 80 | 190 | 0.0 | 4.0 | 0.00 | 0.00 | 0.00 | 68 | 1014.7 |
| 20260901161730 | 80 | 190 | 0.0 | 4.0 | 0.00 | 0.00 | 0.00 | 68 | 1014.7 |
| 20260901161535 | 80 | 192 | 0.0 | 4.0 | 0.00 | 0.00 | 0.00 | 67 | 1014.7 |
| 20260901161333 | 80 | 190 | 0.0 | 4.0 | 0.00 | 0.00 | 0.00 | 69 | 1014.8 |
| 20260901161239 | 80 | 227 | 0.0 | 4.0 | 0.00 | 0.00 | 0.00 | 72 | 1014.8 |
| 20260901161229 | 80 | 189 | 0.0 | 4.0 | 0.00 | 0.00 | 0.00 | 72 | 1014.7 |
| 20260901160930 | 80 | 227 | 0.0 | 4.0 | 0.00 | 0.00 | 0.00 | 70 | 1014.8 |
| 20260901160730 | 80 | 209 | 0.0 | 4.0 | 0.00 | 0.00 | 0.00 | 71 | 1014.8 |
| 20260901160528 | 79 | 210 | 0.0 | 4.0 | 0.00 | 0.00 | 0.00 | 71 | 1014.8 |
| 20260901160328 | 79 | 221 | 0.0 | 4.0 | 0.00 | 0.00 | 0.00 | 71 | 1014.7 |
| 20260901160240 | 79 | 221 | 0.0 | 4.0 | 0.00 | 0.00 | 0.00 | 71 | 1014.8 |
| 20260901160229 | 79 | 220 | 0.0 | 4.0 | 0.00 | 0.00 | 0.00 | 71 | 1014.7 |
| 20260901155927 | 80 | 224 | 0.0 | 4.0 | 0.00 | 0.00 | 0.00 | 72 | 1014.7 |
| 20260901155836 | 80 | 227 | 0.0 | 4.0 | 0.00 | 0.00 | 0.00 | 71 | 1014.6 |
| 20260901155732 | 80 | 227 | 0.0 | 4.0 | 0.00 | 0.00 | 0.00 | 71 | 1014.6 |
| 20260901155532 | 80 | 227 | 0.0 | 3.0 | 0.00 | 0.00 | 0.00 | 71 | 1014.6 |
| 20260901155523 | 80 | 227 | 0.0 | 3.0 | 0.00 | 0.00 | 0.00 | 76 | 1014.6 |
| 20260901155455 | 80 | 227 | 0.0 | 3.0 | 0.00 | 0.00 | 0.00 | 72 | 1014.6 |
| 20260901155129 | 79 | 227 | 0.0 | 3.0 | 0.00 | 0.00 | 0.00 | 73 | 1014.7 |
| 20260901154929 | 79 | 226 | 0.0 | 3.0 | 0.00 | 0.00 | 0.00 | 73 | 1014.8 |
| 20260901154834 | 79 | 227 | 0.0 | 3.0 | 0.00 | 0.00 | 0.00 | 73 | 1014.7 |
| 20260901154731 | 79 | 227 | 0.0 | 3.0 | 0.00 | 0.00 | 0.00 | 73 | 1014.7 |
| 20260901154557 | 79 | 226 | 0.0 | 2.0 | 0.00 | 0.00 | 0.00 | 75 | 1014.6 |
| 20260901154532 | 79 | 226 | 0.0 | 2.0 | 0.00 | 0.00 | 0.00 | 74 | 1014.7 |
| 20260901154523 | 79 | 227 | 0.0 | 2.0 | 0.00 | 0.00 | 0.00 | 75 | 1014.6 |
| 20260901154130 | 79 | 226 | 0.0 | 2.0 | 0.00 | 0.00 | 0.00 | 73 | 1014.5 |
| 20260901153929 | 79 | 227 | 0.0 | 2.0 | 0.00 | 0.00 | 0.00 | 73 | 1014.5 |
| 20260901153731 | 79 | 227 | 0.0 | 2.0 | 0.00 | 0.00 | 0.00 | 75 | 1014.5 |
| 20260901153532 | 79 | 227 | 0.0 | 2.0 | 0.00 | 0.00 | 0.00 | 76 | 1014.5 |
| 20260901153522 | 78 | 227 | 0.0 | 3.0 | 0.00 | 0.00 | 0.00 | 73 | 1014.6 |
| 20260901153456 | 78 | 227 | 0.0 | 3.0 | 0.00 | 0.00 | 0.00 | 74 | 1014.6 |
| 20260901153129 | 78 | 228 | 0.0 | 3.0 | 0.00 | 0.00 | 0.00 | 74 | 1014.5 |
| 20260901153032 | 78 | 227 | 0.0 | 3.0 | 0.00 | 0.00 | 0.00 | 72 | 1014.6 |
| 20260901152744 | 78 | 227 | 0.0 | 3.0 | 0.00 | 0.00 | 0.00 | 77 | 1014.6 |
| 20260901152529 | 78 | 227 | 0.0 | 4.0 | 0.00 | 0.00 | 0.00 | 74 | 1014.7 |
| 20260901152329 | 78 | 227 | 0.0 | 4.0 | 0.00 | 0.00 | 0.00 | 74 | 1014.7 |
| 20260901152239 | 78 | 227 | 0.0 | 4.0 | 0.00 | 0.00 | 0.00 | 75 | 1014.7 |
| 20260901152229 | 78 | 228 | 0.0 | 4.0 | 0.00 | 0.00 | 0.00 | 75 | 1014.7 |
| 20260901151929 | 78 | 227 | 0.0 | 4.0 | 0.00 | 0.00 | 0.00 | 74 | 1014.7 |
| 20260901151743 | 78 | 227 | 0.0 | 4.0 | 0.00 | 0.00 | 0.00 | 76 | 1014.7 |
| 20260901151632 | 78 | 227 | 0.0 | 3.0 | 0.00 | 0.00 | 0.00 | 74 | 1014.7 |
| 20260901151328 | 78 | 227 | 0.0 | 3.0 | 0.00 | 0.00 | 0.00 | 76 | 1014.8 |
| 20260901151230 | 78 | 228 | 0.0 | 3.0 | 0.00 | 0.00 | 0.00 | 77 | 1014.8 |
| 20260901151131 | 77 | 228 | 0.0 | 3.0 | 0.00 | 0.00 | 0.00 | 76 | 1014.8 |
| 20260901150931 | 77 | 228 | 0.0 | 3.0 | 0.00 | 0.00 | 0.00 | 76 | 1014.6 |
| 20260901150835 | 77 | 227 | 0.0 | 2.0 | 0.00 | 0.00 | 0.00 | 78 | 1014.7 |
| 20260901150730 | 77 | 227 | 0.0 | 2.0 | 0.00 | 0.00 | 0.00 | 78 | 1014.7 |
| 20260901150530 | 77 | 228 | 0.0 | 2.0 | 0.00 | 0.00 | 0.00 | 78 | 1014.7 |
| 20260901150329 | 76 | 226 | 0.0 | 0.0 | 0.00 | 0.00 | 0.00 | 77 | 1014.8 |
| 20260901150240 | 76 | 227 | 0.0 | 0.0 | 0.00 | 0.00 | 0.00 | 79 | 1014.7 |
| 20260901150229 | 76 | 227 | 0.0 | 0.0 | 0.00 | 0.00 | 0.00 | 78 | 1014.8 |
| 20260901145928 | 76 | 227 | 0.0 | 0.0 | 0.00 | 0.00 | 0.00 | 79 | 1014.8 |
| 20260901145731 | 76 | 227 | 0.0 | 0.0 | 0.00 | 0.00 | 0.00 | 78 | 1014.8 |
| 20260901145531 | 76 | 230 | 0.0 | 0.0 | 0.00 | 0.00 | 0.00 | 78 | 1015.0 |
| 20260901145329 | 76 | 228 | 0.0 | 0.0 | 0.00 | 0.00 | 0.00 | 79 | 1015.0 |
| 20260901145229 | 75 | 228 | 0.0 | 0.0 | 0.00 | 0.00 | 0.00 | 80 | 1014.8 |
| 20260901145129 | 75 | 230 | 0.0 | 0.0 | 0.00 | 0.00 | 0.00 | 80 | 1015.1 |
| 20260901144928 | 75 | 228 | 0.0 | 0.0 | 0.00 | 0.00 | 0.00 | 79 | 1015.0 |
| 20260901144730 | 75 | 231 | 0.0 | 0.0 | 0.00 | 0.00 | 0.00 | 79 | 1015.0 |
| 20260901144629 | 75 | 228 | 0.0 | 0.0 | 0.00 | 0.00 | 0.00 | 82 | 1015.0 |
| 20260901144427 | 75 | 230 | 0.0 | 0.0 | 0.00 | 0.00 | 0.00 | 81 | 1015.1 |
| 20260901144228 | 74 | 228 | 0.0 | 0.0 | 0.00 | 0.00 | 0.00 | 81 | 1015.0 |
| 20260901144128 | 74 | 228 | 0.0 | 0.0 | 0.00 | 0.00 | 0.00 | 81 | 1015.1 |
| 20260901143929 | 74 | 230 | 0.0 | 0.0 | 0.00 | 0.00 | 0.00 | 83 | 1015.1 |
| 20260901143731 | 74 | 228 | 0.0 | 0.0 | 0.00 | 0.00 | 0.00 | 84 | 1015.0 |
| 20260901143530 | 74 | 228 | 0.0 | 0.0 | 0.00 | 0.00 | 0.00 | 84 | 1015.0 |
| 20260901143331 | 74 | 228 | 0.0 | 0.0 | 0.00 | 0.00 | 0.00 | 84 | 1015.0 |
| 20260901143238 | 73 | 230 | 0.0 | 0.0 | 0.00 | 0.00 | 0.00 | 85 | 1014.8 |
| 20260901143229 | 74 | 230 | 0.0 | 0.0 | 0.00 | 0.00 | 0.00 | 84 | 1014.8 |
| 20260901143031 | 73 | 228 | 0.0 | 0.0 | 0.00 | 0.00 | 0.00 | 86 | 1015.0 |
| 20260901142730 | 73 | 230 | 0.0 | 0.0 | 0.00 | 0.00 | 0.00 | 86 | 1015.0 |
| 20260901142530 | 73 | 228 | 0.0 | 0.0 | 0.00 | 0.00 | 0.00 | 87 | 1015.0 |
| 20260901142329 | 72 | 230 | 0.0 | 0.0 | 0.00 | 0.00 | 0.00 | 87 | 1015.0 |
| 20260901142230 | 72 | 228 | 0.0 | 0.0 | 0.00 | 0.00 | 0.00 | 88 | 1015.0 |
| 20260901142131 | 72 | 230 | 0.0 | 0.0 | 0.00 | 0.00 | 0.00 | 88 | 1015.1 |
| 20260901141929 | 72 | 231 | 0.0 | 0.0 | 0.00 | 0.00 | 0.00 | 89 | 1015.1 |
| 20260901141837 | 72 | 230 | 0.0 | 0.0 | 0.00 | 0.00 | 0.00 | 90 | 1015.0 |
| 20260901141731 | 72 | 230 | 0.0 | 0.0 | 0.00 | 0.00 | 0.00 | 90 | 1015.0 |
| 20260901141628 | 71 | 237 | 0.0 | 0.0 | 0.00 | 0.00 | 0.00 | 90 | 1015.0 |
| 20260901141329 | 71 | 192 | 0.0 | 0.0 | 0.00 | 0.00 | 0.00 | 91 | 1015.1 |
| 20260901141239 | 71 | 193 | 0.0 | 0.0 | 0.00 | 0.00 | 0.00 | 91 | 1015.1 |
| 20260901141230 | 71 | 190 | 0.0 | 0.0 | 0.00 | 0.00 | 0.00 | 91 | 1015.1 |
| 20260901140929 | 71 | 190 | 0.0 | 0.0 | 0.00 | 0.00 | 0.00 | 92 | 1015.2 |
| 20260901140838 | 71 | 203 | 0.0 | 0.0 | 0.00 | 0.00 | 0.00 | 92 | 1015.2 |
| 20260901140731 | 71 | 203 | 0.0 | 0.0 | 0.00 | 0.00 | 0.00 | 92 | 1015.2 |
| 20260901140528 | 70 | 203 | 0.0 | 0.0 | 0.00 | 0.00 | 0.00 | 93 | 1015.2 |
| 20260901140329 | 70 | 216 | 0.0 | 0.0 | 0.00 | 0.00 | 0.00 | 94 | 1015.2 |
| 20260901140229 | 70 | 216 | 0.0 | 0.0 | 0.00 | 0.00 | 0.00 | 94 | 1015.2 |
| 20260901140130 | 70 | 214 | 0.0 | 0.0 | 0.00 | 0.00 | 0.00 | 94 | 1015.2 |
| 20260901135930 | 70 | 214 | 0.0 | 0.0 | 0.00 | 0.00 | 0.00 | 95 | 1015.2 |
| 20260901135836 | 69 | 216 | 0.0 | 0.0 | 0.00 | 0.00 | 0.00 | 95 | 1015.3 |
| 20260901135731 | 69 | 216 | 0.0 | 0.0 | 0.00 | 0.00 | 0.00 | 95 | 1015.3 |
| 20260901135556 | 69 | 216 | 0.0 | 0.0 | 0.00 | 0.00 | 0.00 | 96 | 1015.3 |
| 20260901135529 | 69 | 214 | 0.0 | 0.0 | 0.00 | 0.00 | 0.00 | 95 | 1015.3 |
| 20260901135516 | 69 | 216 | 0.0 | 0.0 | 0.00 | 0.00 | 0.00 | 96 | 1015.3 |
| 20260901135130 | 68 | 216 | 0.0 | 0.0 | 0.00 | 0.00 | 0.00 | 97 | 1015.2 |
| 20260901134930 | 68 | 216 | 0.0 | 0.0 | 0.00 | 0.00 | 0.00 | 97 | 1015.4 |
| 20260901134731 | 68 | 214 | 0.0 | 0.0 | 0.00 | 0.00 | 0.00 | 97 | 1015.3 |
| 20260901134601 | 68 | 216 | 0.0 | 0.0 | 0.00 | 0.00 | 0.00 | 97 | 1015.3 |
| 20260901134529 | 68 | 214 | 0.0 | 0.0 | 0.00 | 0.00 | 0.00 | 97 | 1015.3 |
| 20260901134520 | 68 | 214 | 0.0 | 0.0 | 0.00 | 0.00 | 0.00 | 97 | 1015.4 |
| 20260901134130 | 68 | 216 | 0.0 | 0.0 | 0.00 | 0.00 | 0.00 | 97 | 1015.3 |
| 20260901134030 | 68 | 214 | 0.0 | 0.0 | 0.00 | 0.00 | 0.00 | 97 | 1015.3 |
| 20260901133730 | 67 | 216 | 0.0 | 0.0 | 0.00 | 0.00 | 0.00 | 97 | 1015.3 |
| 20260901133534 | 67 | 216 | 0.0 | 0.0 | 0.00 | 0.00 | 0.00 | 97 | 1015.4 |
| 20260901133528 | 67 | 214 | 0.0 | 0.0 | 0.00 | 0.00 | 0.00 | 97 | 1015.4 |
| 20260901133501 | 67 | 216 | 0.0 | 0.0 | 0.00 | 0.00 | 0.00 | 97 | 1015.4 |
| 20260901133129 | 67 | 216 | 0.0 | 0.0 | 0.00 | 0.00 | 0.00 | 97 | 1015.4 |
| 20260901132929 | 67 | 216 | 0.0 | 1.0 | 0.00 | 0.00 | 0.00 | 97 | 1015.4 |
| 20260901132731 | 67 | 216 | 0.0 | 1.0 | 0.00 | 0.00 | 0.00 | 97 | 1015.4 |
| 20260901132529 | 67 | 214 | 0.0 | 1.0 | 0.00 | 0.00 | 0.00 | 98 | 1015.4 |
| 20260901132428 | 67 | 216 | 0.0 | 1.0 | 0.00 | 0.00 | 0.00 | 98 | 1015.4 |
| 20260901132228 | 66 | 216 | 0.0 | 1.0 | 0.00 | 0.00 | 0.00 | 97 | 1015.3 |
| 20260901132128 | 66 | 216 | 0.0 | 1.0 | 0.00 | 0.00 | 0.00 | 97 | 1015.4 |
| 20260901132030 | 66 | 214 | 0.0 | 0.0 | 0.00 | 0.00 | 0.00 | 97 | 1015.3 |
| 20260901131731 | 66 | 214 | 0.0 | 0.0 | 0.00 | 0.00 | 0.00 | 97 | 1015.3 |
| 20260901131529 | 66 | 220 | 0.0 | 0.0 | 0.00 | 0.00 | 0.00 | 98 | 1015.2 |
| 20260901131331 | 66 | 220 | 0.0 | 0.0 | 0.00 | 0.00 | 0.00 | 97 | 1015.2 |
| 20260901131230 | 66 | 220 | 0.0 | 0.0 | 0.00 | 0.00 | 0.00 | 97 | 1015.2 |
| 20260901131129 | 66 | 220 | 0.0 | 0.0 | 0.00 | 0.00 | 0.00 | 97 | 1015.2 |
| 20260901131036 | 65 | 220 | 0.0 | 0.0 | 0.00 | 0.00 | 0.00 | 97 | 1015.2 |
| 20260901130730 | 65 | 219 | 0.0 | 0.0 | 0.00 | 0.00 | 0.00 | 97 | 1015.2 |
| 20260901130628 | 65 | 220 | 0.0 | 0.0 | 0.00 | 0.00 | 0.00 | 97 | 1015.1 |
| 20260901130330 | 65 | 219 | 0.0 | 0.0 | 0.00 | 0.00 | 0.00 | 98 | 1015.1 |
| 20260901130243 | 65 | 219 | 0.0 | 0.0 | 0.00 | 0.00 | 0.00 | 97 | 1015.1 |
| 20260901130129 | 65 | 220 | 0.0 | 0.0 | 0.00 | 0.00 | 0.00 | 97 | 1015.1 |
| 20260901125931 | 65 | 219 | 0.0 | 0.0 | 0.00 | 0.00 | 0.00 | 97 | 1015.0 |
| 20260901125733 | 65 | 219 | 0.0 | 0.0 | 0.00 | 0.00 | 0.00 | 98 | 1015.0 |
| 20260901125612 | 0 | 0.0 | 0.0 | 0.00 | 0.00 | 0.00 | |||
| 20260901125507 | 0 | 0.0 | 0.0 | 0.00 | 0.00 | 0.00 | |||
| 20260901125309 | 0 | 0.0 | 0.0 | 0.00 | 0.00 | 0.00 | |||
| 20260901125035 | 0 | 0.0 | 0.0 | 0.00 | 0.00 | 0.00 | |||
| 20260901124934 | 0 | 0.0 | 0.0 | 0.00 | 0.00 | 0.00 | |||
| 20260901124848 | 0 | 0.0 | 0.0 | 0.00 | 0.00 | 0.00 | |||
| 20260901124638 | 0 | 0.0 | 0.0 | 0.00 | 0.00 | 0.00 | |||
| 20260901124548 | 0 | 0.0 | 0.0 | 0.00 | 0.00 | 0.00 | 1014.8 | ||
| 20260901124444 | 0 | 0.0 | 0.0 | 0.00 | 0.00 | 0.00 | 1014.8 | ||
| 20260901124207 | 0 | 0.0 | 0.0 | 0.00 | 0.00 | 0.00 | 1014.8 | ||
| 20260901124110 | 0 | 0.0 | 0.0 | 0.00 | 0.00 | 0.00 | 1014.8 | ||
| 20260901123905 | 63 | 219 | 0.0 | 0.0 | 0.00 | 0.00 | 0.00 | 97 | 1014.8 |
| 20260901123808 | 63 | 219 | 0.0 | 0.0 | 0.00 | 0.00 | 0.00 | 97 | 1014.8 |
| 20260901123617 | 63 | 219 | 0.0 | 0.0 | 0.00 | 0.00 | 0.00 | 97 | 1014.7 |
| 20260901123610 | 63 | 219 | 0.0 | 0.0 | 0.00 | 0.00 | 0.00 | 97 | 1014.8 |
| 20260901123550 | 63 | 219 | 0.0 | 0.0 | 0.00 | 0.00 | 0.00 | 97 | 1014.8 |
| 20260901123158 | 63 | 220 | 0.0 | 0.0 | 0.00 | 0.00 | 0.00 | 97 | 1014.7 |
| 20260901123135 | 63 | 219 | 0.0 | 0.0 | 0.00 | 0.00 | 0.00 | 97 | 1014.7 |
| 20260901123115 | 63 | 220 | 0.0 | 0.0 | 0.00 | 0.00 | 0.00 | 97 | 1014.7 |
| 20260901122737 | 63 | 220 | 0.0 | 0.0 | 0.00 | 0.00 | 0.00 | 97 | 1014.7 |
| 20260901122634 | 62 | 220 | 0.0 | 0.0 | 0.00 | 0.00 | 0.00 | 97 | 1014.7 |
| 20260901122332 | 62 | 220 | 0.0 | 0.0 | 0.00 | 0.00 | 0.00 | 97 | 1014.7 |
| 20260901122135 | 62 | 220 | 0.0 | 0.0 | 0.00 | 0.00 | 0.00 | 97 | 1014.7 |
| 20260901122124 | 62 | 219 | 0.0 | 0.0 | 0.00 | 0.00 | 0.00 | 97 | 1014.7 |
| 20260901122101 | 62 | 220 | 0.0 | 0.0 | 0.00 | 0.00 | 0.00 | 97 | 1014.7 |
| 20260901121736 | 62 | 220 | 0.0 | 0.0 | 0.00 | 0.00 | 0.00 | 97 | 1014.7 |
| 20260901121635 | 62 | 220 | 0.0 | 0.0 | 0.00 | 0.00 | 0.00 | 97 | 1014.6 |
| 20260901121330 | 62 | 220 | 0.0 | 0.0 | 0.00 | 0.00 | 0.00 | 97 | 1014.6 |
| 20260901121236 | 62 | 219 | 0.0 | 0.0 | 0.00 | 0.00 | 0.00 | 97 | 1014.5 |
| 20260901121056 | 62 | 220 | 0.0 | 0.0 | 0.00 | 0.00 | 0.00 | 97 | 1014.5 |
| 20260901121036 | 62 | 220 | 0.0 | 0.0 | 0.00 | 0.00 | 0.00 | 97 | 1014.5 |
| 20260901120736 | 62 | 219 | 0.0 | 0.0 | 0.00 | 0.00 | 0.00 | 97 | 1014.5 |
| 20260901120634 | 62 | 220 | 0.0 | 0.0 | 0.00 | 0.00 | 0.00 | 97 | 1014.6 |
| 20260901120334 | 62 | 220 | 0.0 | 0.0 | 0.00 | 0.00 | 0.00 | 97 | 1014.6 |
| 20260901120301 | 62 | 219 | 0.0 | 0.0 | 0.00 | 0.00 | 0.00 | 97 | 1014.5 |
| 20260901120139 | 62 | 219 | 0.0 | 0.0 | 0.00 | 0.00 | 0.00 | 97 | 1014.4 |
| 20260901120135 | 62 | 221 | 0.0 | 0.0 | 0.00 | 0.00 | 0.00 | 97 | 1014.6 |
| 20260901120052 | 62 | 219 | 0.0 | 0.0 | 0.00 | 0.00 | 0.00 | 97 | 1014.5 |
| 20260901115737 | 62 | 220 | 0.0 | 0.0 | 0.00 | 0.00 | 0.00 | 97 | 1014.5 |
| 20260901115534 | 62 | 219 | 0.0 | 0.0 | 0.00 | 0.00 | 0.00 | 97 | 1014.4 |
| 20260901115336 | 62 | 219 | 0.0 | 0.0 | 0.00 | 0.00 | 0.00 | 97 | 1014.5 |
| 20260901115306 | 62 | 220 | 0.0 | 0.0 | 0.00 | 0.00 | 0.00 | 97 | 1014.4 |
| 20260901115235 | 62 | 220 | 0.0 | 0.0 | 0.00 | 0.00 | 0.00 | 97 | 1014.4 |
| 20260901114939 | 62 | 219 | 0.0 | 0.0 | 0.00 | 0.00 | 0.00 | 97 | 1014.4 |
| 20260901114800 | 62 | 219 | 0.0 | 0.0 | 0.00 | 0.00 | 0.00 | 97 | 1014.3 |
| 20260901114731 | 62 | 220 | 0.0 | 0.0 | 0.00 | 0.00 | 0.00 | 97 | 1014.3 |
| 20260901114644 | 62 | 220 | 0.0 | 0.0 | 0.00 | 0.00 | 0.00 | 97 | 1014.3 |
| 20260901114521 | 62 | 220 | 0.0 | 0.0 | 0.00 | 0.00 | 0.00 | 97 | 1014.3 |
| 20260901114106 | 62 | 220 | 0.0 | 0.0 | 0.00 | 0.00 | 0.00 | 97 | 1014.2 |
| 20260901113906 | 62 | 217 | 0.0 | 0.0 | 0.00 | 0.00 | 0.00 | 97 | 1014.3 |
| 20260901113807 | 62 | 220 | 0.0 | 0.0 | 0.00 | 0.00 | 0.00 | 97 | 1014.2 |
| 20260901113754 | 62 | 219 | 0.0 | 0.0 | 0.00 | 0.00 | 0.00 | 97 | 1014.2 |
| 20260901113540 | 62 | 219 | 0.0 | 0.0 | 0.00 | 0.00 | 0.00 | 97 | 1014.1 |
| 20260901113528 | 62 | 220 | 0.0 | 0.0 | 0.00 | 0.00 | 0.00 | 97 | 1014.1 |
| 20260901113457 | 62 | 220 | 0.0 | 0.0 | 0.00 | 0.00 | 0.00 | 97 | 1014.1 |
| 20260901113103 | 62 | 219 | 0.0 | 0.0 | 0.00 | 0.00 | 0.00 | 97 | 1014.1 |
| 20260901112902 | 62 | 220 | 0.0 | 0.0 | 0.00 | 0.00 | 0.00 | 97 | 1014.2 |
| 20260901112738 | 62 | 220 | 0.0 | 0.0 | 0.00 | 0.00 | 0.00 | 97 | 1014.1 |
| 20260901112702 | 62 | 219 | 0.0 | 0.0 | 0.00 | 0.00 | 0.00 | 97 | 1014.1 |
| 20260901112542 | 62 | 220 | 0.0 | 0.0 | 0.00 | 0.00 | 0.00 | 97 | 1014.0 |
| 20260901112529 | 62 | 220 | 0.0 | 0.0 | 0.00 | 0.00 | 0.00 | 96 | 1014.0 |
| 20260901112458 | 62 | 219 | 0.0 | 0.0 | 0.00 | 0.00 | 0.00 | 97 | 1014.0 |
| 20260901112205 | 62 | 220 | 0.0 | 0.0 | 0.00 | 0.00 | 0.00 | 97 | 1014.0 |
| 20260901111901 | 62 | 221 | 0.0 | 0.0 | 0.00 | 0.00 | 0.00 | 96 | 1013.9 |
| 20260901111803 | 62 | 219 | 0.0 | 0.0 | 0.00 | 0.00 | 0.00 | 96 | 1013.8 |
| 20260901111736 | 62 | 220 | 0.0 | 0.0 | 0.00 | 0.00 | 0.00 | 96 | 1013.9 |
| 20260901111444 | 62 | 220 | 0.0 | 0.0 | 0.00 | 0.00 | 0.00 | 96 | 1013.8 |
| 20260901111237 | 62 | 220 | 0.0 | 0.0 | 0.00 | 0.00 | 0.00 | 96 | 1013.8 |
| 20260901111040 | 62 | 219 | 0.0 | 0.0 | 0.00 | 0.00 | 0.00 | 97 | 1013.8 |
| 20260901110838 | 62 | 220 | 0.0 | 0.0 | 0.00 | 0.00 | 0.00 | 96 | 1013.7 |
| 20260901110747 | 62 | 220 | 0.0 | 0.0 | 0.00 | 0.00 | 0.00 | 96 | 1013.8 |
| 20260901110735 | 62 | 219 | 0.0 | 0.0 | 0.00 | 0.00 | 0.00 | 96 | 1013.7 |
| 20260901110440 | 62 | 220 | 0.0 | 0.0 | 0.00 | 0.00 | 0.00 | 97 | 1013.8 |
| 20260901110339 | 62 | 220 | 0.0 | 0.0 | 0.00 | 0.00 | 0.00 | 97 | 1013.8 |
| 20260901110235 | 62 | 219 | 0.0 | 0.0 | 0.00 | 0.00 | 0.00 | 97 | 1013.8 |
| 20260901110036 | 62 | 220 | 0.0 | 0.0 | 0.00 | 0.00 | 0.00 | 96 | 1013.7 |
| 20260901105837 | 62 | 220 | 0.0 | 0.0 | 0.00 | 0.00 | 0.00 | 96 | 1013.7 |
| 20260901105733 | 62 | 219 | 0.0 | 0.0 | 0.00 | 0.00 | 0.00 | 97 | 1013.8 |
| 20260901105638 | 62 | 219 | 0.0 | 0.0 | 0.00 | 0.00 | 0.00 | 97 | 1013.8 |
| 20260901105435 | 62 | 220 | 0.0 | 0.0 | 0.00 | 0.00 | 0.00 | 96 | 1013.8 |
| 20260901105343 | 62 | 219 | 0.0 | 0.0 | 0.00 | 0.00 | 0.00 | 96 | 1013.8 |
| 20260901105235 | 62 | 219 | 0.0 | 0.0 | 0.00 | 0.00 | 0.00 | 96 | 1013.8 |
| 20260901105036 | 62 | 219 | 0.0 | 0.0 | 0.00 | 0.00 | 0.00 | 96 | 1013.8 |
| 20260901104835 | 62 | 219 | 0.0 | 0.0 | 0.00 | 0.00 | 0.00 | 97 | 1013.8 |
| 20260901104735 | 62 | 219 | 0.0 | 0.0 | 0.00 | 0.00 | 0.00 | 97 | 1013.8 |
| 20260901104639 | 62 | 220 | 0.0 | 0.0 | 0.00 | 0.00 | 0.00 | 97 | 1013.7 |
| 20260901104635 | 62 | 219 | 0.0 | 0.0 | 0.00 | 0.00 | 0.00 | 97 | 1013.8 |
| 20260901104236 | 62 | 220 | 0.0 | 0.0 | 0.00 | 0.00 | 0.00 | 96 | 1013.8 |
| 20260901104214 | 62 | 220 | 0.0 | 0.0 | 0.00 | 0.00 | 0.00 | 96 | 1013.7 |
| 20260901104035 | 62 | 220 | 0.0 | 0.0 | 0.00 | 0.00 | 0.00 | 96 | 1013.7 |
| 20260901103838 | 62 | 220 | 0.0 | 0.0 | 0.00 | 0.00 | 0.00 | 96 | 1013.8 |
| 20260901103704 | 62 | 220 | 0.0 | 0.0 | 0.00 | 0.00 | 0.00 | 96 | 1013.9 |
| 20260901103635 | 62 | 219 | 0.0 | 0.0 | 0.00 | 0.00 | 0.00 | 96 | 1013.9 |
| 20260901103435 | 62 | 220 | 0.0 | 0.0 | 0.00 | 0.00 | 0.00 | 96 | 1013.7 |
| 20260901103240 | 62 | 220 | 0.0 | 0.0 | 0.00 | 0.00 | 0.00 | 97 | 1013.7 |
| 20260901103235 | 62 | 220 | 0.0 | 0.0 | 0.00 | 0.00 | 0.00 | 97 | 1013.7 |
| 20260901103205 | 62 | 220 | 0.0 | 0.0 | 0.00 | 0.00 | 0.00 | 97 | 1013.7 |
| 20260901102954 | 62 | 220 | 0.0 | 0.0 | 0.00 | 0.00 | 0.00 | 97 | 1013.7 |
| 20260901102940 | 62 | 217 | 0.0 | 0.0 | 0.00 | 0.00 | 0.00 | 97 | 1013.7 |
| 20260901102631 | 62 | 220 | 0.0 | 0.0 | 0.00 | 0.00 | 0.00 | 97 | 1013.7 |
| 20260901102431 | 62 | 217 | 0.0 | 0.0 | 0.00 | 0.00 | 0.00 | 96 | 1013.7 |
| 20260901102231 | 62 | 220 | 0.0 | 0.0 | 0.00 | 0.00 | 0.00 | 96 | 1013.8 |
| 20260901102204 | 62 | 221 | 0.0 | 0.0 | 0.00 | 0.00 | 0.00 | 96 | 1013.8 |
| 20260901102037 | 62 | 219 | 0.0 | 0.0 | 0.00 | 0.00 | 0.00 | 96 | 1013.7 |
| 20260901102032 | 62 | 219 | 0.0 | 0.0 | 0.00 | 0.00 | 0.00 | 96 | 1013.8 |
| 20260901101958 | 62 | 219 | 0.0 | 0.0 | 0.00 | 0.00 | 0.00 | 96 | 1013.6 |
| 20260901101953 | 62 | 220 | 0.0 | 0.0 | 0.00 | 0.00 | 0.00 | 96 | 1013.6 |
| 20260901101431 | 62 | 220 | 0.0 | 0.0 | 0.00 | 0.00 | 0.00 | 96 | 1013.7 |
| 20260901101232 | 62 | 220 | 0.0 | 0.0 | 0.00 | 0.00 | 0.00 | 96 | 1013.6 |
| 20260901101205 | 62 | 220 | 0.0 | 0.0 | 0.00 | 0.00 | 0.00 | 96 | 1013.7 |
| 20260901101030 | 62 | 219 | 0.0 | 0.0 | 0.00 | 0.00 | 0.00 | 96 | 1013.5 |
| 20260901100957 | 62 | 219 | 0.0 | 0.0 | 0.00 | 0.00 | 0.00 | 96 | 1013.5 |
| 20260901100939 | 62 | 220 | 0.0 | 0.0 | 0.00 | 0.00 | 0.00 | 96 | 1013.6 |
| 20260901100632 | 62 | 220 | 0.0 | 0.0 | 0.00 | 0.00 | 0.00 | 96 | 1013.5 |
| 20260901100431 | 62 | 220 | 0.0 | 0.0 | 0.00 | 0.00 | 0.00 | 96 | 1013.6 |
| 20260901100203 | 62 | 220 | 0.0 | 0.0 | 0.00 | 0.00 | 0.00 | 96 | 1013.6 |
| 20260901100031 | 62 | 219 | 0.0 | 0.0 | 0.00 | 0.00 | 0.00 | 96 | 1013.5 |
| 20260901095830 | 63 | 220 | 0.0 | 0.0 | 0.00 | 0.00 | 0.00 | 96 | 1013.5 |
| 20260901095728 | 63 | 220 | 0.0 | 0.0 | 0.00 | 0.00 | 0.00 | 96 | 1013.6 |
| 20260901095702 | 63 | 220 | 0.0 | 0.0 | 0.00 | 0.00 | 0.00 | 96 | 1013.5 |
| 20260901095540 | 63 | 220 | 0.0 | 0.0 | 0.00 | 0.00 | 0.00 | 96 | 1013.6 |
| 20260901095234 | 63 | 220 | 0.0 | 0.0 | 0.00 | 0.00 | 0.00 | 96 | 1013.6 |
| 20260901095203 | 63 | 219 | 0.0 | 0.0 | 0.00 | 0.00 | 0.00 | 96 | 1013.6 |
| 20260901095034 | 63 | 219 | 0.0 | 0.0 | 0.00 | 0.00 | 0.00 | 96 | 1013.5 |
| 20260901094834 | 63 | 219 | 0.0 | 0.0 | 0.00 | 0.00 | 0.00 | 96 | 1013.5 |
| 20260901094704 | 63 | 220 | 0.0 | 0.0 | 0.00 | 0.00 | 0.00 | 96 | 1013.5 |
| 20260901094635 | 63 | 220 | 0.0 | 0.0 | 0.00 | 0.00 | 0.00 | 96 | 1013.5 |
| 20260901094434 | 63 | 220 | 0.0 | 0.0 | 0.00 | 0.00 | 0.00 | 96 | 1013.6 |
| 20260901094335 | 63 | 220 | 0.0 | 0.0 | 0.00 | 0.00 | 0.00 | 96 | 1013.6 |
| 20260901094204 | 63 | 220 | 0.0 | 0.0 | 0.00 | 0.00 | 0.00 | 96 | 1013.6 |
| 20260901094136 | 63 | 220 | 0.0 | 0.0 | 0.00 | 0.00 | 0.00 | 96 | 1013.6 |
| 20260901093835 | 63 | 220 | 0.0 | 0.0 | 0.00 | 0.00 | 0.00 | 96 | 1013.5 |
| 20260901093651 | 63 | 219 | 0.0 | 0.0 | 0.00 | 0.00 | 0.00 | 96 | 1013.6 |
| 20260901093633 | 63 | 220 | 0.0 | 0.0 | 0.00 | 0.00 | 0.00 | 96 | 1013.6 |
| 20260901093433 | 63 | 220 | 0.0 | 0.0 | 0.00 | 0.00 | 0.00 | 96 | 1013.6 |
| 20260901093237 | 63 | 219 | 0.0 | 0.0 | 0.00 | 0.00 | 0.00 | 96 | 1013.6 |
| 20260901093151 | 63 | 219 | 0.0 | 0.0 | 0.00 | 0.00 | 0.00 | 96 | 1013.6 |
| 20260901093034 | 63 | 220 | 0.0 | 0.0 | 0.00 | 0.00 | 0.00 | 96 | 1013.6 |
| 20260901092832 | 63 | 220 | 0.0 | 0.0 | 0.00 | 0.00 | 0.00 | 96 | 1013.6 |
| 20260901092632 | 63 | 219 | 0.0 | 0.0 | 0.00 | 0.00 | 0.00 | 96 | 1013.6 |
| 20260901092432 | 63 | 219 | 0.0 | 0.0 | 0.00 | 0.00 | 0.00 | 96 | 1013.5 |
| 20260901092231 | 62 | 221 | 0.0 | 0.0 | 0.00 | 0.00 | 0.00 | 96 | 1013.5 |
| 20260901092149 | 62 | 220 | 0.0 | 0.0 | 0.00 | 0.00 | 0.00 | 96 | 1013.5 |
| 20260901092031 | 62 | 220 | 0.0 | 0.0 | 0.00 | 0.00 | 0.00 | 96 | 1013.5 |
| 20260901091926 | 62 | 220 | 0.0 | 0.0 | 0.00 | 0.00 | 0.00 | 96 | 1013.5 |
| 20260901091632 | 62 | 219 | 0.0 | 0.0 | 0.00 | 0.00 | 0.00 | 96 | 1013.5 |
| 20260901091535 | 62 | 220 | 0.0 | 0.0 | 0.00 | 0.00 | 0.00 | 96 | 1013.5 |
| 20260901091440 | 62 | 219 | 0.0 | 0.0 | 0.00 | 0.00 | 0.00 | 96 | 1013.4 |
| 20260901091412 | 62 | 219 | 0.0 | 0.0 | 0.00 | 0.00 | 0.00 | 96 | 1013.4 |
| 20260901091032 | 62 | 220 | 0.0 | 0.0 | 0.00 | 0.00 | 0.00 | 96 | 1013.5 |
| 20260901090832 | 62 | 220 | 0.0 | 0.0 | 0.00 | 0.00 | 0.00 | 96 | 1013.4 |
| 20260901090632 | 62 | 220 | 0.0 | 0.0 | 0.00 | 0.00 | 0.00 | 96 | 1013.4 |
| 20260901090529 | 62 | 220 | 0.0 | 0.0 | 0.00 | 0.00 | 0.00 | 96 | 1013.5 |
| 20260901090231 | 62 | 219 | 0.0 | 0.0 | 0.00 | 0.00 | 0.00 | 96 | 1013.5 |
| 20260901090142 | 62 | 219 | 0.0 | 0.0 | 0.00 | 0.00 | 0.00 | 96 | 1013.5 |
| 20260901090128 | 62 | 220 | 0.0 | 0.0 | 0.00 | 0.00 | 0.00 | 96 | 1013.5 |
| 20260901085831 | 62 | 219 | 0.0 | 0.0 | 0.00 | 0.00 | 0.00 | 96 | 1013.6 |
| 20260901085643 | 63 | 220 | 0.0 | 0.0 | 0.00 | 0.00 | 0.00 | 96 | 1013.6 |
| 20260901085621 | 63 | 219 | 0.0 | 0.0 | 0.00 | 0.00 | 0.00 | 96 | 1013.7 |
| 20260901085419 | 63 | 219 | 0.0 | 0.0 | 0.00 | 0.00 | 0.00 | 96 | 1013.6 |
| 20260901085220 | 62 | 219 | 0.0 | 0.0 | 0.00 | 0.00 | 0.00 | 96 | 1013.5 |
| 20260901085141 | 62 | 219 | 0.0 | 0.0 | 0.00 | 0.00 | 0.00 | 96 | 1013.5 |
| 20260901085113 | 62 | 219 | 0.0 | 0.0 | 0.00 | 0.00 | 0.00 | 96 | 1013.6 |
| 20260901084815 | 62 | 220 | 0.0 | 0.0 | 0.00 | 0.00 | 0.00 | 96 | 1013.6 |
| 20260901084641 | 63 | 220 | 0.0 | 0.0 | 0.00 | 0.00 | 0.00 | 96 | 1013.6 |
| 20260901084617 | 63 | 219 | 0.0 | 0.0 | 0.00 | 0.00 | 0.00 | 96 | 1013.6 |
| 20260901084516 | 62 | 221 | 0.0 | 0.0 | 0.00 | 0.00 | 0.00 | 96 | 1013.6 |
| 20260901084216 | 63 | 219 | 0.0 | 0.0 | 0.00 | 0.00 | 0.00 | 96 | 1013.6 |
| 20260901084140 | 63 | 220 | 0.0 | 0.0 | 0.00 | 0.00 | 0.00 | 96 | 1013.6 |
| 20260901084014 | 63 | 217 | 0.0 | 0.0 | 0.00 | 0.00 | 0.00 | 96 | 1013.6 |
| 20260901083815 | 63 | 221 | 0.0 | 0.0 | 0.00 | 0.00 | 0.00 | 96 | 1013.5 |
| 20260901083637 | 63 | 217 | 0.0 | 0.0 | 0.00 | 0.00 | 0.00 | 96 | 1013.7 |
| 20260901083611 | 63 | 219 | 0.0 | 0.0 | 0.00 | 0.00 | 0.00 | 96 | 1013.6 |
| 20260901083508 | 63 | 219 | 0.0 | 0.0 | 0.00 | 0.00 | 0.00 | 96 | 1013.5 |
| 20260901083210 | 63 | 219 | 0.0 | 0.0 | 0.00 | 0.00 | 0.00 | 96 | 1013.6 |
| 20260901083138 | 63 | 220 | 0.0 | 0.0 | 0.00 | 0.00 | 0.00 | 96 | 1013.6 |
| 20260901083102 | 63 | 221 | 0.0 | 0.0 | 0.00 | 0.00 | 0.00 | 96 | 1013.5 |
| 20260901082934 | 63 | 220 | 0.0 | 0.0 | 0.00 | 0.00 | 0.00 | 96 | 1013.5 |
| 20260901082914 | 63 | 219 | 0.0 | 0.0 | 0.00 | 0.00 | 0.00 | 96 | 1013.5 |
| 20260901082605 | 63 | 219 | 0.0 | 0.0 | 0.00 | 0.00 | 0.00 | 96 | 1013.5 |
| 20260901082407 | 63 | 220 | 0.0 | 0.0 | 0.00 | 0.00 | 0.00 | 96 | 1013.5 |
| 20260901082205 | 63 | 220 | 0.0 | 0.0 | 0.00 | 0.00 | 0.00 | 96 | 1013.5 |
| 20260901082136 | 63 | 219 | 0.0 | 0.0 | 0.00 | 0.00 | 0.00 | 96 | 1013.5 |
| 20260901082105 | 63 | 220 | 0.0 | 0.0 | 0.00 | 0.00 | 0.00 | 96 | 1013.6 |
| 20260901081806 | 63 | 220 | 0.0 | 0.0 | 0.00 | 0.00 | 0.00 | 96 | 1013.6 |
| 20260901081708 | 63 | 219 | 0.0 | 0.0 | 0.00 | 0.00 | 0.00 | 96 | 1013.6 |
| 20260901081634 | 63 | 219 | 0.0 | 0.0 | 0.00 | 0.00 | 0.00 | 96 | 1013.6 |
| 20260901081335 | 63 | 220 | 0.0 | 0.0 | 0.00 | 0.00 | 0.00 | 96 | 1013.6 |
| 20260901081134 | 64 | 220 | 0.0 | 0.0 | 0.00 | 0.00 | 0.00 | 96 | 1013.6 |
| 20260901080935 | 64 | 219 | 0.0 | 0.0 | 0.00 | 0.00 | 0.00 | 96 | 1013.5 |
| 20260901080737 | 63 | 219 | 0.0 | 0.0 | 0.00 | 0.00 | 0.00 | 96 | 1013.4 |
| 20260901080633 | 64 | 220 | 0.0 | 0.0 | 0.00 | 0.00 | 0.00 | 96 | 1013.5 |
| 20260901080533 | 64 | 221 | 0.0 | 0.0 | 0.00 | 0.00 | 0.00 | 96 | 1013.5 |
| 20260901080333 | 64 | 220 | 0.0 | 0.0 | 0.00 | 0.00 | 0.00 | 95 | 1013.4 |
| 20260901080245 | 64 | 219 | 0.0 | 0.0 | 0.00 | 0.00 | 0.00 | 95 | 1013.4 |
| 20260901080139 | 64 | 219 | 0.0 | 0.0 | 0.00 | 0.00 | 0.00 | 95 | 1013.4 |
| 20260901080002 | 0 | 0.0 | 0.0 | 0.00 | 0.00 | 0.00 | |||
| 20260901075903 | 0 | 0.0 | 0.0 | 0.00 | 0.00 | 0.00 | |||
| 20260901075732 | 0 | 0.0 | 0.0 | 0.00 | 0.00 | 0.00 | |||
| 20260901075431 | 0 | 0.0 | 0.0 | 0.00 | 0.00 | 0.00 | |||
| 20260901075231 | 0 | 0.0 | 0.0 | 0.00 | 0.00 | 0.00 | |||
| 20260901075032 | 0 | 0.0 | 0.0 | 0.00 | 0.00 | 0.00 | |||
| 20260901074933 | 0 | 0.0 | 0.0 | 0.00 | 0.00 | 0.00 | |||
| 20260901074804 | 0 | 0.0 | 0.0 | 0.00 | 0.00 | 0.00 | 1013.4 | ||
| 20260901074707 | 0 | 0.0 | 0.0 | 0.00 | 0.00 | 0.00 | 1013.4 | ||
| 20260901074435 | 0 | 0.0 | 0.0 | 0.00 | 0.00 | 0.00 | 1013.4 | ||
| 20260901074403 | 0 | 221 | 0.0 | 0.0 | 0.00 | 0.00 | 0.00 | 1013.4 | |
| 20260901074234 | 64 | 221 | 0.0 | 0.0 | 0.00 | 0.00 | 0.00 | 95 | 1013.4 |
| 20260901073922 | 64 | 221 | 0.0 | 0.0 | 0.00 | 0.00 | 0.00 | 95 | 1013.4 |
| 20260901073722 | 64 | 221 | 0.0 | 0.0 | 0.00 | 0.00 | 0.00 | 95 | 1013.5 |
| 20260901073712 | 64 | 221 | 0.0 | 0.0 | 0.00 | 0.00 | 0.00 | 95 | 1013.5 |
| 20260901073658 | 64 | 221 | 0.0 | 0.0 | 0.00 | 0.00 | 0.00 | 95 | 1013.5 |
| 20260901073319 | 64 | 220 | 0.0 | 0.0 | 0.00 | 0.00 | 0.00 | 95 | 1013.6 |
| 20260901073212 | 64 | 219 | 0.0 | 0.0 | 0.00 | 0.00 | 0.00 | 95 | 1013.5 |
| 20260901072924 | 64 | 220 | 0.0 | 0.0 | 0.00 | 0.00 | 0.00 | 95 | 1013.5 |
| 20260901072915 | 64 | 220 | 0.0 | 0.0 | 0.00 | 0.00 | 0.00 | 95 | 1013.6 |
| 20260901072816 | 64 | 220 | 0.0 | 0.0 | 0.00 | 0.00 | 0.00 | 95 | 1013.7 |
| 20260901072721 | 64 | 219 | 0.0 | 0.0 | 0.00 | 0.00 | 0.00 | 95 | 1013.6 |
| 20260901072655 | 64 | 219 | 0.0 | 0.0 | 0.00 | 0.00 | 0.00 | 95 | 1013.6 |
| 20260901072312 | 64 | 219 | 0.0 | 0.0 | 0.00 | 0.00 | 0.00 | 95 | 1013.7 |
| 20260901072103 | 64 | 220 | 0.0 | 0.0 | 0.00 | 0.00 | 0.00 | 95 | 1013.7 |
| 20260901071923 | 64 | 220 | 0.0 | 0.0 | 0.00 | 0.00 | 0.00 | 95 | 1013.7 |
| 20260901071903 | 64 | 220 | 0.0 | 0.0 | 0.00 | 0.00 | 0.00 | 95 | 1013.8 |
| 20260901071720 | 64 | 217 | 0.0 | 0.0 | 0.00 | 0.00 | 0.00 | 95 | 1013.7 |
| 20260901071713 | 64 | 221 | 0.0 | 0.0 | 0.00 | 0.00 | 0.00 | 95 | 1013.7 |
| 20260901071645 | 64 | 221 | 0.0 | 0.0 | 0.00 | 0.00 | 0.00 | 95 | 1013.7 |
| 20260901071405 | 64 | 220 | 0.0 | 0.0 | 0.00 | 0.00 | 0.00 | 95 | 1013.8 |
| 20260901071159 | 64 | 220 | 0.0 | 0.0 | 0.00 | 0.00 | 0.00 | 95 | 1013.8 |
| 20260901070923 | 64 | 220 | 0.0 | 0.0 | 0.00 | 0.00 | 0.00 | 95 | 1013.9 |
| 20260901070904 | 64 | 220 | 0.0 | 0.0 | 0.00 | 0.00 | 0.00 | 95 | 1013.8 |
| 20260901070703 | 64 | 220 | 0.0 | 0.0 | 0.00 | 0.00 | 0.00 | 95 | 1013.9 |
| 20260901070504 | 64 | 220 | 0.0 | 0.0 | 0.00 | 0.00 | 0.00 | 95 | 1013.9 |
| 20260901070416 | 64 | 220 | 0.0 | 0.0 | 0.00 | 0.00 | 0.00 | 95 | 1013.9 |
| 20260901070303 | 64 | 219 | 0.0 | 0.0 | 0.00 | 0.00 | 0.00 | 95 | 1013.9 |
| 20260901070218 | 64 | 220 | 0.0 | 0.0 | 0.00 | 0.00 | 0.00 | 95 | 1014.0 |
| 20260901070211 | 64 | 220 | 0.0 | 0.0 | 0.00 | 0.00 | 0.00 | 95 | 1014.0 |
| 20260901070156 | 64 | 220 | 0.0 | 0.0 | 0.00 | 0.00 | 0.00 | 95 | 1013.9 |
| 20260901065801 | 64 | 220 | 0.0 | 0.0 | 0.00 | 0.00 | 0.00 | 95 | 1014.0 |
| 20260901065500 | 64 | 219 | 0.0 | 0.0 | 0.00 | 0.00 | 0.00 | 95 | 1013.9 |
| 20260901065414 | 64 | 220 | 0.0 | 0.0 | 0.00 | 0.00 | 0.00 | 95 | 1013.9 |
| 20260901065259 | 64 | 220 | 0.0 | 0.0 | 0.00 | 0.00 | 0.00 | 95 | 1013.9 |
| 20260901065207 | 64 | 220 | 0.0 | 0.0 | 0.00 | 0.00 | 0.00 | 95 | 1013.9 |
| 20260901065148 | 64 | 220 | 0.0 | 0.0 | 0.00 | 0.00 | 0.00 | 95 | 1014.0 |
| 20260901064858 | 64 | 219 | 0.0 | 0.0 | 0.00 | 0.00 | 0.00 | 95 | 1013.9 |
| 20260901064651 | 64 | 219 | 0.0 | 0.0 | 0.00 | 0.00 | 0.00 | 95 | 1013.9 |
| 20260901064450 | 64 | 219 | 0.0 | 0.0 | 0.00 | 0.00 | 0.00 | 95 | 1013.9 |
| 20260901064411 | 64 | 220 | 0.0 | 0.0 | 0.00 | 0.00 | 0.00 | 95 | 1013.9 |
| 20260901064253 | 64 | 220 | 0.0 | 0.0 | 0.00 | 0.00 | 0.00 | 95 | 1014.0 |
| 20260901064246 | 65 | 219 | 0.0 | 0.0 | 0.00 | 0.00 | 0.00 | 95 | 1014.1 |
| 20260901064204 | 65 | 219 | 0.0 | 0.0 | 0.00 | 0.00 | 0.00 | 95 | 1014.0 |
| 20260901063848 | 65 | 221 | 0.0 | 0.0 | 0.00 | 0.00 | 0.00 | 95 | 1014.0 |
| 20260901063648 | 65 | 219 | 0.0 | 0.0 | 0.00 | 0.00 | 0.00 | 95 | 1014.0 |
| 20260901063546 | 65 | 220 | 0.0 | 0.0 | 0.00 | 0.00 | 0.00 | 95 | 1014.0 |
| 20260901063409 | 65 | 219 | 0.0 | 0.0 | 0.00 | 0.00 | 0.00 | 94 | 1014.0 |
| 20260901063247 | 65 | 219 | 0.0 | 0.0 | 0.00 | 0.00 | 0.00 | 95 | 1014.1 |
| 20260901063203 | 65 | 219 | 0.0 | 0.0 | 0.00 | 0.00 | 0.00 | 95 | 1014.1 |
| 20260901063144 | 65 | 219 | 0.0 | 0.0 | 0.00 | 0.00 | 0.00 | 95 | 1014.1 |
| 20260901062846 | 65 | 220 | 0.0 | 0.0 | 0.00 | 0.00 | 0.00 | 95 | 1014.1 |
| 20260901062740 | 65 | 220 | 0.0 | 0.0 | 0.00 | 0.00 | 0.00 | 95 | 1014.1 |
| 20260901062443 | 65 | 220 | 0.0 | 0.0 | 0.00 | 0.00 | 0.00 | 95 | 1014.1 |
| 20260901062409 | 65 | 220 | 0.0 | 0.0 | 0.00 | 0.00 | 0.00 | 95 | 1014.0 |
| 20260901062248 | 65 | 220 | 0.0 | 0.0 | 0.00 | 0.00 | 0.00 | 95 | 1014.1 |
| 20260901062243 | 65 | 219 | 0.0 | 0.0 | 0.00 | 0.00 | 0.00 | 95 | 1014.1 |
| 20260901062154 | 65 | 220 | 0.0 | 0.0 | 0.00 | 0.00 | 0.00 | 95 | 1014.2 |
| 20260901061839 | 65 | 220 | 0.0 | 0.0 | 0.00 | 0.00 | 0.00 | 95 | 1014.2 |
| 20260901061639 | 65 | 220 | 0.0 | 0.0 | 0.00 | 0.00 | 0.00 | 94 | 1014.1 |
| 20260901061406 | 65 | 220 | 0.0 | 0.0 | 0.00 | 0.00 | 0.00 | 94 | 1014.1 |
| 20260901061332 | 65 | 220 | 0.0 | 0.0 | 0.00 | 0.00 | 0.00 | 94 | 1014.1 |
| 20260901061203 | 65 | 219 | 0.0 | 0.0 | 0.00 | 0.00 | 0.00 | 94 | 1014.0 |
| 20260901061143 | 65 | 219 | 0.0 | 0.0 | 0.00 | 0.00 | 0.00 | 94 | 1014.0 |
| 20260901060831 | 65 | 220 | 0.0 | 0.0 | 0.00 | 0.00 | 0.00 | 95 | 1014.0 |
| 20260901060633 | 65 | 219 | 0.0 | 0.0 | 0.00 | 0.00 | 0.00 | 95 | 1014.0 |
| 20260901060432 | 66 | 219 | 0.0 | 0.0 | 0.00 | 0.00 | 0.00 | 95 | 1014.1 |
| 20260901060403 | 65 | 220 | 0.0 | 0.0 | 0.00 | 0.00 | 0.00 | 95 | 1014.0 |
| 20260901060236 | 65 | 220 | 0.0 | 0.0 | 0.00 | 0.00 | 0.00 | 94 | 1014.0 |
| 20260901060223 | 66 | 219 | 0.0 | 0.0 | 0.00 | 0.00 | 0.00 | 95 | 1014.0 |
| 20260901060154 | 65 | 219 | 0.0 | 0.0 | 0.00 | 0.00 | 0.00 | 94 | 1013.9 |
| 20260901055823 | 65 | 220 | 0.0 | 0.0 | 0.00 | 0.00 | 0.00 | 94 | 1013.9 |
| 20260901055603 | 66 | 221 | 0.0 | 0.0 | 0.00 | 0.00 | 0.00 | 94 | 1013.9 |
| 20260901055514 | 66 | 220 | 0.0 | 0.0 | 0.00 | 0.00 | 0.00 | 94 | 1013.9 |
| 20260901055408 | 66 | 220 | 0.0 | 0.0 | 0.00 | 0.00 | 0.00 | 94 | 1013.9 |
| 20260901055206 | 66 | 219 | 0.0 | 0.0 | 0.00 | 0.00 | 0.00 | 94 | 1013.9 |
| 20260901055006 | 66 | 220 | 0.0 | 0.0 | 0.00 | 0.00 | 0.00 | 94 | 1013.9 |
| 20260901054909 | 66 | 220 | 0.0 | 0.0 | 0.00 | 0.00 | 0.00 | 94 | 1014.0 |
| 20260901054746 | 66 | 220 | 0.0 | 0.0 | 0.00 | 0.00 | 0.00 | 94 | 1013.9 |
| 20260901054642 | 66 | 219 | 0.0 | 0.0 | 0.00 | 0.00 | 0.00 | 94 | 1013.9 |
| 20260901054333 | 66 | 220 | 0.0 | 0.0 | 0.00 | 0.00 | 0.00 | 94 | 1013.9 |
| 20260901054143 | 66 | 219 | 0.0 | 0.0 | 0.00 | 0.00 | 0.00 | 94 | 1013.9 |
| 20260901054045 | 66 | 220 | 0.0 | 0.0 | 0.00 | 0.00 | 0.00 | 94 | 1013.8 |
| 20260901053831 | 66 | 220 | 0.0 | 0.0 | 0.00 | 0.00 | 0.00 | 94 | 1013.8 |
| 20260901053739 | 66 | 219 | 0.0 | 0.0 | 0.00 | 0.00 | 0.00 | 94 | 1013.8 |
| 20260901053539 | 66 | 220 | 0.0 | 0.0 | 0.00 | 0.00 | 0.00 | 94 | 1013.8 |
| 20260901053341 | 66 | 221 | 0.0 | 0.0 | 0.00 | 0.00 | 0.00 | 94 | 1013.8 |
| 20260901053330 | 66 | 219 | 0.0 | 0.0 | 0.00 | 0.00 | 0.00 | 94 | 1013.8 |
| 20260901053234 | 66 | 220 | 0.0 | 0.0 | 0.00 | 0.00 | 0.00 | 94 | 1013.8 |
| 20260901052938 | 66 | 219 | 0.0 | 0.0 | 0.00 | 0.00 | 0.00 | 94 | 1013.7 |
| 20260901052833 | 66 | 220 | 0.0 | 0.0 | 0.00 | 0.00 | 0.00 | 94 | 1013.7 |
| 20260901052737 | 66 | 219 | 0.0 | 0.0 | 0.00 | 0.00 | 0.00 | 94 | 1013.7 |
| 20260901052540 | 66 | 220 | 0.0 | 0.0 | 0.00 | 0.00 | 0.00 | 94 | 1013.6 |
| 20260901052343 | 66 | 219 | 0.0 | 0.0 | 0.00 | 0.00 | 0.00 | 94 | 1013.7 |
| 20260901052331 | 66 | 220 | 0.0 | 0.0 | 0.00 | 0.00 | 0.00 | 94 | 1013.7 |
| 20260901052239 | 67 | 220 | 0.0 | 0.0 | 0.00 | 0.00 | 0.00 | 94 | 1013.7 |
| 20260901052039 | 67 | 219 | 0.0 | 0.0 | 0.00 | 0.00 | 0.00 | 94 | 1013.7 |
| 20260901051832 | 67 | 220 | 0.0 | 0.0 | 0.00 | 0.00 | 0.00 | 94 | 1013.7 |
| 20260901051734 | 67 | 219 | 0.0 | 0.0 | 0.00 | 0.00 | 0.00 | 94 | 1013.7 |
| 20260901051536 | 67 | 221 | 0.0 | 0.0 | 0.00 | 0.00 | 0.00 | 94 | 1013.6 |
| 20260901051332 | 67 | 219 | 0.0 | 0.0 | 0.00 | 0.00 | 0.00 | 94 | 1013.6 |
| 20260901051133 | 67 | 219 | 0.0 | 0.0 | 0.00 | 0.00 | 0.00 | 94 | 1013.6 |
| 20260901050935 | 67 | 220 | 0.0 | 0.0 | 0.00 | 0.00 | 0.00 | 94 | 1013.6 |
| 20260901050852 | 67 | 219 | 0.0 | 0.0 | 0.00 | 0.00 | 0.00 | 94 | 1013.6 |
| 20260901050838 | 67 | 219 | 0.0 | 0.0 | 0.00 | 0.00 | 0.00 | 94 | 1013.6 |
| 20260901050629 | 67 | 220 | 0.0 | 0.0 | 0.00 | 0.00 | 0.00 | 94 | 1013.5 |
| 20260901050328 | 67 | 220 | 0.0 | 0.0 | 0.00 | 0.00 | 0.00 | 94 | 1013.4 |
| 20260901050132 | 67 | 220 | 0.0 | 0.0 | 0.00 | 0.00 | 0.00 | 93 | 1013.4 |
| 20260901050121 | 67 | 220 | 0.0 | 0.0 | 0.00 | 0.00 | 0.00 | 93 | 1013.4 |
| 20260901050059 | 67 | 220 | 0.0 | 0.0 | 0.00 | 0.00 | 0.00 | 93 | 1013.4 |
| 20260901045729 | 67 | 220 | 0.0 | 0.0 | 0.00 | 0.00 | 0.00 | 93 | 1013.4 |
| 20260901045620 | 67 | 220 | 0.0 | 0.0 | 0.00 | 0.00 | 0.00 | 93 | 1013.2 |
| 20260901045606 | 67 | 219 | 0.0 | 0.0 | 0.00 | 0.00 | 0.00 | 93 | 1013.4 |
| 20260901045231 | 67 | 220 | 0.0 | 0.0 | 0.00 | 0.00 | 0.00 | 93 | 1013.2 |
| 20260901044931 | 67 | 220 | 0.0 | 0.0 | 0.00 | 0.00 | 0.00 | 93 | 1013.2 |
| 20260901044826 | 67 | 219 | 0.0 | 0.0 | 0.00 | 0.00 | 0.00 | 93 | 1013.2 |
| 20260901044730 | 67 | 219 | 0.0 | 0.0 | 0.00 | 0.00 | 0.00 | 93 | 1013.3 |
| 20260901044613 | 68 | 220 | 0.0 | 0.0 | 0.00 | 0.00 | 0.00 | 93 | 1013.1 |
| 20260901044603 | 68 | 219 | 0.0 | 0.0 | 0.00 | 0.00 | 0.00 | 93 | 1013.1 |
| 20260901044538 | 68 | 219 | 0.0 | 0.0 | 0.00 | 0.00 | 0.00 | 93 | 1013.0 |
| 20260901044130 | 68 | 220 | 0.0 | 0.0 | 0.00 | 0.00 | 0.00 | 93 | 1013.1 |
| 20260901043931 | 68 | 219 | 0.0 | 0.0 | 0.00 | 0.00 | 0.00 | 93 | 1013.0 |
| 20260901043808 | 68 | 219 | 0.0 | 0.0 | 0.00 | 0.00 | 0.00 | 93 | 1013.1 |
| 20260901043731 | 68 | 220 | 0.0 | 0.0 | 0.00 | 0.00 | 0.00 | 93 | 1013.1 |
| 20260901043653 | 68 | 219 | 0.0 | 0.0 | 0.00 | 0.00 | 0.00 | 93 | 1013.0 |
| 20260901043600 | 68 | 219 | 0.0 | 0.0 | 0.00 | 0.00 | 0.00 | 93 | 1013.1 |
| 20260901043531 | 68 | 219 | 0.0 | 0.0 | 0.00 | 0.00 | 0.00 | 93 | 1013.0 |
| 20260901043225 | 68 | 219 | 0.0 | 0.0 | 0.00 | 0.00 | 0.00 | 93 | 1013.0 |
| 20260901042923 | 68 | 220 | 0.0 | 0.0 | 0.00 | 0.00 | 0.00 | 93 | 1013.0 |
| 20260901042806 | 68 | 220 | 0.0 | 0.0 | 0.00 | 0.00 | 0.00 | 93 | 1013.0 |
| 20260901042725 | 68 | 220 | 0.0 | 0.0 | 0.00 | 0.00 | 0.00 | 93 | 1013.0 |
| 20260901042525 | 68 | 220 | 0.0 | 0.0 | 0.00 | 0.00 | 0.00 | 93 | 1013.0 |
| 20260901042310 | 0 | 220 | 0.0 | 0.0 | 0.00 | 0.00 | 0.00 | 1013.0 | |
| 20260901042037 | 0 | 0.0 | 0.0 | 0.00 | 0.00 | 0.00 | |||
| 20260901041802 | 0 | 0.0 | 0.0 | 0.00 | 0.00 | 0.00 | |||
| 20260901041735 | 0 | 0.0 | 0.0 | 0.00 | 0.00 | 0.00 | |||
| 20260901041644 | 0 | 0.0 | 0.0 | 0.00 | 0.00 | 0.00 | |||
| 20260901041524 | 0 | 0.0 | 0.0 | 0.00 | 0.00 | 0.00 | |||
| 20260901041107 | 0 | 0.0 | 0.0 | 0.00 | 0.00 | 0.00 | |||
| 20260901040906 | 0 | 0.0 | 0.0 | 0.00 | 0.00 | 0.00 | 1013.2 | ||
| 20260901040805 | 0 | 0.0 | 0.0 | 0.00 | 0.00 | 0.00 | 1013.2 | ||
| 20260901040707 | 0 | 0.0 | 0.0 | 0.00 | 0.00 | 0.00 | 1013.2 | ||
| 20260901040615 | 69 | 220 | 0.0 | 0.0 | 0.00 | 0.00 | 0.00 | 91 | 1013.2 |
| 20260901040449 | 69 | 220 | 0.0 | 0.0 | 0.00 | 0.00 | 0.00 | 91 | 1013.2 |
| 20260901040126 | 69 | 220 | 0.0 | 0.0 | 0.00 | 0.00 | 0.00 | 91 | 1013.2 |
| 20260901035827 | 69 | 220 | 0.0 | 0.0 | 0.00 | 0.00 | 0.00 | 91 | 1013.1 |
| 20260901035727 | 69 | 220 | 0.0 | 0.0 | 0.00 | 0.00 | 0.00 | 91 | 1013.1 |
| 20260901035627 | 69 | 220 | 0.0 | 0.0 | 0.00 | 0.00 | 0.00 | 91 | 1013.1 |
| 20260901035516 | 69 | 219 | 0.0 | 0.0 | 0.00 | 0.00 | 0.00 | 91 | 1013.2 |
| 20260901035506 | 69 | 217 | 0.0 | 0.0 | 0.00 | 0.00 | 0.00 | 91 | 1013.1 |
| 20260901035437 | 69 | 220 | 0.0 | 0.0 | 0.00 | 0.00 | 0.00 | 91 | 1013.1 |
| 20260901035130 | 69 | 220 | 0.0 | 0.0 | 0.00 | 0.00 | 0.00 | 91 | 1013.1 |
| 20260901034826 | 69 | 219 | 0.0 | 0.0 | 0.00 | 0.00 | 0.00 | 92 | 1013.3 |
| 20260901034728 | 69 | 219 | 0.0 | 0.0 | 0.00 | 0.00 | 0.00 | 92 | 1013.3 |
| 20260901034713 | 69 | 220 | 0.0 | 0.0 | 0.00 | 0.00 | 0.00 | 92 | 1013.3 |
| 20260901034515 | 69 | 220 | 0.0 | 0.0 | 0.00 | 0.00 | 0.00 | 91 | 1013.4 |
| 20260901034503 | 69 | 219 | 0.0 | 0.0 | 0.00 | 0.00 | 0.00 | 91 | 1013.3 |
| 20260901034433 | 69 | 220 | 0.0 | 0.0 | 0.00 | 0.00 | 0.00 | 91 | 1013.3 |
| 20260901034026 | 69 | 220 | 0.0 | 0.0 | 0.00 | 0.00 | 0.00 | 91 | 1013.4 |
| 20260901033825 | 69 | 219 | 0.0 | 0.0 | 0.00 | 0.00 | 0.00 | 91 | 1013.4 |
| 20260901033727 | 70 | 220 | 0.0 | 0.0 | 0.00 | 0.00 | 0.00 | 91 | 1013.3 |
| 20260901033714 | 69 | 220 | 0.0 | 0.0 | 0.00 | 0.00 | 0.00 | 91 | 1013.3 |
| 20260901033529 | 70 | 219 | 0.0 | 0.0 | 0.00 | 0.00 | 0.00 | 91 | 1013.3 |
| 20260901033509 | 70 | 219 | 0.0 | 0.0 | 0.00 | 0.00 | 0.00 | 91 | 1013.4 |
| 20260901033458 | 70 | 220 | 0.0 | 0.0 | 0.00 | 0.00 | 0.00 | 91 | 1013.3 |
| 20260901033029 | 70 | 219 | 0.0 | 0.0 | 0.00 | 0.00 | 0.00 | 91 | 1013.4 |
| 20260901032825 | 70 | 219 | 0.0 | 0.0 | 0.00 | 0.00 | 0.00 | 91 | 1013.4 |
| 20260901032711 | 70 | 219 | 0.0 | 0.0 | 0.00 | 0.00 | 0.00 | 90 | 1013.3 |
| 20260901032624 | 70 | 219 | 0.0 | 0.0 | 0.00 | 0.00 | 0.00 | 90 | 1013.3 |
| 20260901032509 | 70 | 220 | 0.0 | 0.0 | 0.00 | 0.00 | 0.00 | 90 | 1013.2 |
| 20260901032500 | 70 | 220 | 0.0 | 0.0 | 0.00 | 0.00 | 0.00 | 90 | 1013.2 |
| 20260901032433 | 70 | 220 | 0.0 | 0.0 | 0.00 | 0.00 | 0.00 | 90 | 1013.1 |
| 20260901032026 | 70 | 220 | 0.0 | 0.0 | 0.00 | 0.00 | 0.00 | 90 | 1013.2 |
| 20260901031825 | 70 | 220 | 0.0 | 0.0 | 0.00 | 0.00 | 0.00 | 90 | 1013.2 |
| 20260901031709 | 70 | 220 | 0.0 | 0.0 | 0.00 | 0.00 | 0.00 | 90 | 1013.1 |
| 20260901031628 | 70 | 219 | 0.0 | 0.0 | 0.00 | 0.00 | 0.00 | 90 | 1013.1 |
| 20260901031557 | 70 | 220 | 0.0 | 0.0 | 0.00 | 0.00 | 0.00 | 90 | 1013.1 |
| 20260901031507 | 70 | 219 | 0.0 | 0.0 | 0.00 | 0.00 | 0.00 | 90 | 1013.1 |
| 20260901031431 | 70 | 220 | 0.0 | 0.0 | 0.00 | 0.00 | 0.00 | 90 | 1013.1 |
| 20260901031130 | 70 | 220 | 0.0 | 0.0 | 0.00 | 0.00 | 0.00 | 90 | 1013.1 |
| 20260901030825 | 70 | 219 | 0.0 | 0.0 | 0.00 | 0.00 | 0.00 | 90 | 1013.1 |
| 20260901030710 | 70 | 220 | 0.0 | 0.0 | 0.00 | 0.00 | 0.00 | 90 | 1013.1 |
| 20260901030624 | 71 | 220 | 0.0 | 0.0 | 0.00 | 0.00 | 0.00 | 90 | 1013.1 |
| 20260901030508 | 71 | 219 | 0.0 | 0.0 | 0.00 | 0.00 | 0.00 | 90 | 1013.1 |
| 20260901030457 | 71 | 220 | 0.0 | 0.0 | 0.00 | 0.00 | 0.00 | 90 | 1013.1 |
| 20260901030427 | 71 | 220 | 0.0 | 0.0 | 0.00 | 0.00 | 0.00 | 90 | 1013.1 |
| 20260901030134 | 71 | 220 | 0.0 | 0.0 | 0.00 | 0.00 | 0.00 | 90 | 1013.0 |
| 20260901025825 | 71 | 220 | 0.0 | 0.0 | 0.00 | 0.00 | 0.00 | 89 | 1013.0 |
| 20260901025723 | 71 | 220 | 0.0 | 0.0 | 0.00 | 0.00 | 0.00 | 89 | 1013.0 |
| 20260901025705 | 71 | 219 | 0.0 | 0.0 | 0.00 | 0.00 | 0.00 | 89 | 1013.0 |
| 20260901025425 | 71 | 220 | 0.0 | 0.0 | 0.00 | 0.00 | 0.00 | 89 | 1013.0 |
| 20260901025226 | 71 | 220 | 0.0 | 0.0 | 0.00 | 0.00 | 0.00 | 89 | 1013.0 |
| 20260901025203 | 71 | 220 | 0.0 | 0.0 | 0.00 | 0.00 | 0.00 | 89 | 1013.1 |
| 20260901025030 | 71 | 220 | 0.0 | 0.0 | 0.00 | 0.00 | 0.00 | 89 | 1013.1 |
| 20260901024825 | 71 | 220 | 0.0 | 0.0 | 0.00 | 0.00 | 0.00 | 89 | 1013.0 |
| 20260901024723 | 71 | 221 | 0.0 | 0.0 | 0.00 | 0.00 | 0.00 | 89 | 1013.0 |
| 20260901024703 | 71 | 220 | 0.0 | 0.0 | 0.00 | 0.00 | 0.00 | 89 | 1013.0 |
| 20260901024427 | 71 | 219 | 0.0 | 0.0 | 0.00 | 0.00 | 0.00 | 89 | 1012.9 |
| 20260901024225 | 71 | 220 | 0.0 | 0.0 | 0.00 | 0.00 | 0.00 | 89 | 1012.9 |
| 20260901024203 | 71 | 220 | 0.0 | 0.0 | 0.00 | 0.00 | 0.00 | 89 | 1012.8 |
| 20260901024126 | 71 | 220 | 0.0 | 0.0 | 0.00 | 0.00 | 0.00 | 89 | 1013.0 |
| 20260901023826 | 71 | 219 | 0.0 | 0.0 | 0.00 | 0.00 | 0.00 | 88 | 1013.0 |
| 20260901023659 | 71 | 219 | 0.0 | 0.0 | 0.00 | 0.00 | 0.00 | 88 | 1013.0 |
| 20260901023625 | 71 | 219 | 0.0 | 0.0 | 0.00 | 0.00 | 0.00 | 88 | 1013.0 |
| 20260901023425 | 71 | 217 | 0.0 | 0.0 | 0.00 | 0.00 | 0.00 | 88 | 1013.0 |
| 20260901023225 | 71 | 220 | 0.0 | 0.0 | 0.00 | 0.00 | 0.00 | 88 | 1012.9 |
| 20260901023157 | 72 | 219 | 0.0 | 0.0 | 0.00 | 0.00 | 0.00 | 88 | 1013.0 |
| 20260901023127 | 72 | 220 | 0.0 | 0.0 | 0.00 | 0.00 | 0.00 | 88 | 1013.0 |
| 20260901022826 | 72 | 220 | 0.0 | 0.0 | 0.00 | 0.00 | 0.00 | 88 | 1013.0 |
| 20260901022726 | 72 | 221 | 0.0 | 0.0 | 0.00 | 0.00 | 0.00 | 88 | 1012.9 |
| 20260901022642 | 72 | 220 | 0.0 | 0.0 | 0.00 | 0.00 | 0.00 | 88 | 1012.9 |
| 20260901022425 | 72 | 220 | 0.0 | 0.0 | 0.00 | 0.00 | 0.00 | 87 | 1012.9 |
| 20260901022225 | 72 | 220 | 0.0 | 0.0 | 0.00 | 0.00 | 0.00 | 87 | 1012.8 |
| 20260901022139 | 72 | 220 | 0.0 | 0.0 | 0.00 | 0.00 | 0.00 | 87 | 1012.8 |
| 20260901022025 | 72 | 220 | 0.0 | 0.0 | 0.00 | 0.00 | 0.00 | 87 | 1012.8 |
| 20260901021824 | 72 | 220 | 0.0 | 0.0 | 0.00 | 0.00 | 0.00 | 87 | 1012.8 |
| 20260901021723 | 72 | 220 | 0.0 | 0.0 | 0.00 | 0.00 | 0.00 | 87 | 1012.9 |
| 20260901021639 | 72 | 219 | 0.0 | 0.0 | 0.00 | 0.00 | 0.00 | 87 | 1012.9 |
| 20260901021504 | 73 | 219 | 0.0 | 0.0 | 0.00 | 0.00 | 0.00 | 87 | 1012.8 |
| 20260901021434 | 73 | 220 | 0.0 | 0.0 | 0.00 | 0.00 | 0.00 | 87 | 1012.8 |
| 20260901021428 | 73 | 220 | 0.0 | 0.0 | 0.00 | 0.00 | 0.00 | 87 | 1012.7 |
| 20260901021025 | 72 | 219 | 0.0 | 0.0 | 0.00 | 0.00 | 0.00 | 86 | 1012.8 |
| 20260901020826 | 73 | 220 | 0.0 | 0.0 | 0.00 | 0.00 | 0.00 | 86 | 1012.9 |
| 20260901020634 | 73 | 220 | 0.0 | 0.0 | 0.00 | 0.00 | 0.00 | 86 | 1012.9 |
| 20260901020625 | 73 | 219 | 0.0 | 0.0 | 0.00 | 0.00 | 0.00 | 86 | 1012.9 |
| 20260901020438 | 73 | 220 | 0.0 | 0.0 | 0.00 | 0.00 | 0.00 | 85 | 1012.8 |
| 20260901020431 | 73 | 220 | 0.0 | 0.0 | 0.00 | 0.00 | 0.00 | 86 | 1012.9 |
| 20260901020401 | 73 | 219 | 0.0 | 0.0 | 0.00 | 0.00 | 0.00 | 85 | 1012.8 |
| 20260901020026 | 73 | 219 | 0.0 | 0.0 | 0.00 | 0.00 | 0.00 | 85 | 1012.7 |
| 20260901015826 | 73 | 219 | 0.0 | 0.0 | 0.00 | 0.00 | 0.00 | 85 | 1012.7 |
| 20260901015726 | 73 | 219 | 0.0 | 0.0 | 0.00 | 0.00 | 0.00 | 85 | 1012.7 |
| 20260901015647 | 73 | 219 | 0.0 | 0.0 | 0.00 | 0.00 | 0.00 | 85 | 1012.7 |
| 20260901015428 | 74 | 220 | 0.0 | 0.0 | 0.00 | 0.00 | 0.00 | 85 | 1012.6 |
| 20260901015419 | 73 | 219 | 0.0 | 0.0 | 0.00 | 0.00 | 0.00 | 85 | 1012.7 |
| 20260901015351 | 74 | 219 | 0.0 | 0.0 | 0.00 | 0.00 | 0.00 | 85 | 1012.6 |
| 20260901015026 | 74 | 219 | 0.0 | 0.0 | 0.00 | 0.00 | 0.00 | 85 | 1012.6 |
| 20260901014923 | 74 | 220 | 0.0 | 0.0 | 0.00 | 0.00 | 0.00 | 84 | 1012.6 |
| 20260901014644 | 74 | 219 | 0.0 | 0.0 | 0.00 | 0.00 | 0.00 | 84 | 1012.6 |
| 20260901014612 | 74 | 221 | 0.0 | 0.0 | 0.00 | 0.00 | 0.00 | 84 | 1012.6 |
| 20260901014407 | 74 | 219 | 0.0 | 0.0 | 0.00 | 0.00 | 0.00 | 83 | 1012.6 |
| 20260901014305 | 74 | 220 | 0.0 | 0.0 | 0.00 | 0.00 | 0.00 | 83 | 1012.6 |
| 20260901014134 | 75 | 220 | 0.0 | 0.0 | 0.00 | 0.00 | 0.00 | 83 | 1012.6 |
| 20260901014004 | 75 | 220 | 0.0 | 0.0 | 0.00 | 0.00 | 0.00 | 83 | 1012.6 |
| 20260901013748 | 75 | 219 | 0.0 | 0.0 | 0.00 | 0.00 | 0.00 | 83 | 1012.7 |
| 20260901013638 | 75 | 219 | 0.0 | 0.0 | 0.00 | 0.00 | 0.00 | 83 | 1012.6 |
| 20260901013549 | 75 | 219 | 0.0 | 0.0 | 0.00 | 0.00 | 0.00 | 83 | 1012.6 |
| 20260901013445 | 75 | 219 | 0.0 | 0.0 | 0.00 | 0.00 | 0.00 | 82 | 1012.5 |
| 20260901013140 | 75 | 220 | 0.0 | 0.0 | 0.00 | 0.00 | 0.00 | 82 | 1012.5 |
| 20260901013124 | 75 | 221 | 0.0 | 0.0 | 0.00 | 0.00 | 0.00 | 82 | 1012.5 |
| 20260901012937 | 76 | 220 | 0.0 | 0.0 | 0.00 | 0.00 | 0.00 | 82 | 1012.5 |
| 20260901012832 | 76 | 220 | 0.0 | 0.0 | 0.00 | 0.00 | 0.00 | 82 | 1012.4 |
| 20260901012627 | 76 | 219 | 0.0 | 0.0 | 0.00 | 0.00 | 0.00 | 82 | 1012.4 |
| 20260901012535 | 76 | 219 | 0.0 | 0.0 | 0.00 | 0.00 | 0.00 | 82 | 1012.4 |
| 20260901012332 | 76 | 220 | 0.0 | 0.0 | 0.00 | 0.00 | 0.00 | 82 | 1012.4 |
| 20260901012124 | 76 | 220 | 0.0 | 0.0 | 0.00 | 0.00 | 0.00 | 81 | 1012.4 |
| 20260901011929 | 76 | 220 | 0.0 | 0.0 | 0.00 | 0.00 | 0.00 | 81 | 1012.3 |
| 20260901011830 | 76 | 219 | 0.0 | 0.0 | 0.00 | 0.00 | 0.00 | 80 | 1012.3 |
| 20260901011623 | 77 | 219 | 0.0 | 0.0 | 0.00 | 0.00 | 0.00 | 80 | 1012.3 |
| 20260901011527 | 77 | 219 | 0.0 | 0.0 | 0.00 | 0.00 | 0.00 | 80 | 1012.2 |
| 20260901011325 | 77 | 220 | 0.0 | 0.0 | 0.00 | 0.00 | 0.00 | 80 | 1012.3 |
| 20260901011138 | 77 | 220 | 0.0 | 0.0 | 0.00 | 0.00 | 0.00 | 80 | 1012.2 |
| 20260901010925 | 77 | 220 | 0.0 | 0.0 | 0.00 | 0.00 | 0.00 | 80 | 1012.3 |
| 20260901010823 | 78 | 220 | 0.0 | 0.0 | 0.00 | 0.00 | 0.00 | 80 | 1012.3 |
| 20260901010624 | 78 | 219 | 0.0 | 0.0 | 0.00 | 0.00 | 0.00 | 79 | 1012.3 |
| 20260901010526 | 78 | 219 | 0.0 | 0.0 | 0.00 | 0.00 | 0.00 | 79 | 1012.3 |
| 20260901010426 | 78 | 219 | 0.0 | 0.0 | 0.00 | 0.00 | 0.00 | 77 | 1012.3 |
| 20260901010132 | 78 | 219 | 0.0 | 0.0 | 0.00 | 0.00 | 0.00 | 77 | 1012.3 |
| 20260901005923 | 78 | 219 | 0.0 | 0.0 | 0.00 | 0.00 | 0.00 | 77 | 1012.3 |
| 20260901005716 | 78 | 220 | 0.0 | 0.0 | 0.00 | 0.00 | 0.00 | 77 | 1012.3 |
| 20260901005610 | 79 | 217 | 0.0 | 0.0 | 0.00 | 0.00 | 0.00 | 77 | 1012.3 |
| 20260901005516 | 79 | 220 | 0.0 | 0.0 | 0.00 | 0.00 | 0.00 | 76 | 1012.3 |
| 20260901005411 | 79 | 220 | 0.0 | 0.0 | 0.00 | 0.00 | 0.00 | 77 | 1012.3 |
| 20260901005110 | 79 | 220 | 0.0 | 0.0 | 0.00 | 0.00 | 0.00 | 76 | 1012.3 |
| 20260901005014 | 79 | 220 | 0.0 | 0.0 | 0.00 | 0.00 | 0.00 | 76 | 1012.2 |
| 20260901004909 | 80 | 219 | 0.0 | 0.0 | 0.00 | 0.00 | 0.00 | 75 | 1012.2 |
| 20260901004844 | 79 | 220 | 0.0 | 0.0 | 0.00 | 0.00 | 0.00 | 75 | 1012.3 |
| 20260901004511 | 80 | 220 | 0.0 | 0.0 | 0.00 | 0.00 | 0.00 | 75 | 1012.3 |
| 20260901004312 | 80 | 221 | 0.0 | 0.0 | 0.00 | 0.00 | 0.00 | 75 | 1012.2 |
| 20260901004119 | 80 | 219 | 0.0 | 0.0 | 0.00 | 0.00 | 0.00 | 74 | 1012.2 |
| 20260901003942 | 0 | 0.0 | 0.0 | 0.00 | 0.00 | 0.00 | |||
| 20260901003933 | 0 | 0.0 | 0.0 | 0.00 | 0.00 | 0.00 | |||
| 20260901003607 | 0 | 0.0 | 0.0 | 0.00 | 0.00 | 0.00 | |||
| 20260901003406 | 0 | 0.0 | 0.0 | 0.00 | 0.00 | 0.00 | |||
| 20260901003203 | 0 | 0.0 | 0.0 | 0.00 | 0.00 | 0.00 | |||
| 20260901003135 | 0 | 0.0 | 0.0 | 0.00 | 0.00 | 0.00 | |||
| 20260901002951 | 0 | 0.0 | 0.0 | 0.00 | 0.00 | 0.00 | 1012.1 | ||
| 20260901002942 | 0 | 0.0 | 0.0 | 0.00 | 0.00 | 0.00 | |||
| 20260901002925 | 0 | 0.0 | 0.0 | 0.00 | 0.00 | 0.00 | 1012.1 | ||
| 20260901002307 | 0 | 0.0 | 0.0 | 0.00 | 0.00 | 0.00 | 1012.1 | ||
| 20260901002106 | 83 | 219 | 0.0 | 0.0 | 0.00 | 0.00 | 0.00 | 69 | 1012.1 |
| 20260901001834 | 83 | 219 | 0.0 | 0.0 | 0.00 | 0.00 | 0.00 | 69 | 1012.1 |
| 20260901001637 | 83 | 219 | 0.0 | 0.0 | 0.00 | 0.00 | 0.00 | 69 | 1012.1 |
| 20260901001435 | 83 | 219 | 0.0 | 0.0 | 0.00 | 0.00 | 0.00 | 69 | 1012.0 |
| 20260901001248 | 83 | 220 | 0.0 | 0.0 | 0.00 | 0.00 | 0.00 | 68 | 1012.0 |
| 20260901001234 | 83 | 219 | 0.0 | 0.0 | 0.00 | 0.00 | 0.00 | 69 | 1012.1 |
| 20260901001130 | 83 | 219 | 0.0 | 0.0 | 0.00 | 0.00 | 0.00 | 69 | 1012.0 |
| 20260901000833 | 83 | 227 | 0.0 | 0.0 | 0.00 | 0.00 | 0.00 | 68 | 1012.1 |
| 20260901000635 | 0 | 0.0 | 0.0 | 0.00 | 0.00 | 0.00 | 1012.1 | ||
| 20260901000405 | 0 | 0.0 | 0.0 | 0.00 | 0.00 | 0.00 | |||
| 20260901000314 | 0 | 0.0 | 0.0 | 0.00 | 0.00 | 0.00 | |||
| 20260901000303 | 0 | 0.0 | 0.0 | 0.00 | 0.00 | 0.00 | |||
| 20260831235935 | 0 | 0.0 | 0.0 | 0.00 | 0.00 | 0.00 | |||
| 20260831235739 | 0 | 0.0 | 0.0 | 0.00 | 0.00 | 0.00 | |||
| 20260831235735 | 0 | 0.0 | 0.0 | 0.00 | 0.00 | 0.00 | |||
| 20260831235535 | 0 | 0.0 | 0.0 | 0.00 | 0.00 | 0.00 | |||
| 20260831235335 | 0 | 0.0 | 0.0 | 0.00 | 0.00 | 0.00 | |||
| 20260831235245 | 0 | 0.0 | 0.0 | 0.00 | 0.00 | 0.00 | 1012.0 | ||
| 20260831235232 | 0 | 0.0 | 0.0 | 0.00 | 0.00 | 0.00 | 1012.0 | ||
| 20260831234907 | 0 | 0.0 | 0.0 | 0.00 | 0.00 | 0.00 | 1012.0 | ||
| 20260831234706 | 86 | 214 | 0.0 | 0.0 | 0.00 | 0.00 | 0.00 | 63 | 1012.0 |
| 20260831234508 | 86 | 214 | 0.0 | 0.0 | 0.00 | 0.00 | 0.00 | 63 | 1012.0 |
| 20260831234355 | 86 | 214 | 0.0 | 1.0 | 0.00 | 0.00 | 0.00 | 63 | 1012.0 |
| 20260831234326 | 86 | 214 | 0.0 | 3.0 | 0.00 | 0.00 | 0.00 | 63 | 1011.9 |
| 20260831234237 | 86 | 214 | 0.0 | 3.0 | 0.00 | 0.00 | 0.00 | 63 | 1011.9 |
| 20260831233856 | 86 | 214 | 0.0 | 4.0 | 0.00 | 0.00 | 0.00 | 63 | 1011.9 |
| 20260831233654 | 86 | 214 | 0.0 | 4.0 | 0.00 | 0.00 | 0.00 | 62 | 1011.9 |
| 20260831233510 | 87 | 217 | 0.0 | 4.0 | 0.00 | 0.00 | 0.00 | 62 | 1011.9 |
| 20260831233257 | 87 | 203 | 0.0 | 4.0 | 0.00 | 0.00 | 0.00 | 60 | 1011.9 |
| 20260831233056 | 87 | 203 | 0.0 | 4.0 | 0.00 | 0.00 | 0.00 | 60 | 1011.8 |
| 20260831233009 | 87 | 203 | 0.0 | 2.0 | 0.00 | 0.00 | 0.00 | 60 | 1011.9 |
| 20260831232924 | 0 | 238 | 0.0 | 0.0 | 0.00 | 0.00 | 0.00 | 1011.9 | |
| 20260831232856 | 87 | 237 | 0.0 | 2.0 | 0.00 | 0.00 | 0.00 | 60 | 1011.9 |
| 20260831232709 | 0 | 0.0 | 0.0 | 0.00 | 0.00 | 0.00 | 1011.9 | ||
| 20260831232135 | 0 | 0.0 | 0.0 | 0.00 | 0.00 | 0.00 | |||
| 20260831231934 | 0 | 0.0 | 0.0 | 0.00 | 0.00 | 0.00 | |||
| 20260831231902 | 0 | 0.0 | 0.0 | 0.00 | 0.00 | 0.00 | |||
| 20260831231734 | 0 | 0.0 | 0.0 | 0.00 | 0.00 | 0.00 | |||
| 20260831231605 | 0 | 0.0 | 0.0 | 0.00 | 0.00 | 0.00 | |||
| 20260831231600 | 0 | 0.0 | 0.0 | 0.00 | 0.00 | 0.00 | |||
| 20260831231106 | 0 | 0.0 | 0.0 | 0.00 | 0.00 | 0.00 | 1011.9 | ||
| 20260831230906 | 0 | 0.0 | 0.0 | 0.00 | 0.00 | 0.00 | 1011.9 | ||
| 20260831230830 | 0 | 0.0 | 0.0 | 0.00 | 0.00 | 0.00 | 1011.9 | ||
| 20260831230807 | 0 | 0.0 | 0.0 | 0.00 | 0.00 | 0.00 | 1011.9 | ||
| 20260831230610 | 0 | 0.0 | 0.0 | 0.00 | 0.00 | 0.00 | 1011.9 | ||
| 20260831230558 | 0 | 0.0 | 0.0 | 0.00 | 0.00 | 0.00 | 1011.9 | ||
| 20260831230234 | 0 | 0.0 | 0.0 | 0.00 | 0.00 | 0.00 | 1011.9 | ||
| 20260831230034 | 0 | 0.0 | 0.0 | 0.00 | 0.00 | 0.00 | 1011.9 | ||
| 20260831225937 | 0 | 0.0 | 0.0 | 0.00 | 0.00 | 0.00 | 1011.8 | ||
| 20260831225834 | 0 | 0.0 | 0.0 | 0.00 | 0.00 | 0.00 | 1011.8 | ||
| 20260831225432 | 0 | 0.0 | 0.0 | 0.00 | 0.00 | 0.00 | |||
| 20260831225231 | 0 | 0.0 | 0.0 | 0.00 | 0.00 | 0.00 | |||
| 20260831225130 | 0 | 0.0 | 0.0 | 0.00 | 0.00 | 0.00 | |||
| 20260831224831 | 0 | 0.0 | 0.0 | 0.00 | 0.00 | 0.00 | |||
| 20260831224731 | 0 | 0.0 | 0.0 | 0.00 | 0.00 | 0.00 | |||
| 20260831224604 | 0 | 0.0 | 0.0 | 0.00 | 0.00 | 0.00 | |||
| 20260831224446 | 0 | 0.0 | 0.0 | 0.00 | 0.00 | 0.00 | 1011.7 | ||
| 20260831224437 | 0 | 0.0 | 0.0 | 0.00 | 0.00 | 0.00 | 1011.7 | ||
| 20260831224005 | 0 | 220 | 0.0 | 0.0 | 0.00 | 0.00 | 0.00 | 1011.7 | |
| 20260831223807 | 87 | 220 | 0.0 | 1.0 | 0.00 | 0.00 | 0.00 | 60 | 1011.7 |
| 20260831223709 | 87 | 220 | 0.0 | 2.0 | 0.00 | 0.00 | 0.00 | 60 | 1011.7 |
| 20260831223639 | 87 | 220 | 0.0 | 2.0 | 0.00 | 0.00 | 0.00 | 60 | 1011.7 |
| 20260831223450 | 87 | 220 | 0.0 | 2.0 | 0.00 | 0.00 | 0.00 | 60 | 1011.7 |
| 20260831223416 | 87 | 220 | 0.0 | 2.0 | 0.00 | 0.00 | 0.00 | 60 | 1011.7 |
| 20260831223408 | 87 | 220 | 0.0 | 2.0 | 0.00 | 0.00 | 0.00 | 60 | 1011.7 |
| 20260831223031 | 87 | 221 | 0.0 | 2.0 | 0.00 | 0.00 | 0.00 | 60 | 1011.7 |